TAM8071 EDDF-SBGR

Flight info

Callsign TAM8071
Flight time N/A
Altitude 31000
Route ANEKI6E ANEKI Y163 HERBI Y164 OLBEN DCT SAPRE DCT NAKET DCT TOU DCT TOPTU DCT VTB/N0490F330 DCT INPAN N10 HIJ N857 KORNO UN857 TERTO N857 DEREV/N0490F340 N857 GUNET UN857 ERETU/N0495F360 UN857 FNR DCT UBRUT DCT REC DCT UDOSA UZ21 TOPUG/N0488F380 UZ21 VUNOX
Aircraft B77W/H-SDE1E2E3FGHIJ2J3J4J5M1RWXY/LB1D1

Departure

Time 2026-04-18 08:41
Airport Frankfurt Main Airport (EDDF)

Arrival

Time N/A
Airport São Paulo/Guarulhos–Governor André Franco Montoro International Airport (SBGR)
Time Latitude Longitude Altitude Speed Heading
2026-04-18 07:29 50.04596 8.57055 368 ft 0 kts 59°
2026-04-18 08:31 50.04595 8.57052 362 ft 1 kts 59°
2026-04-18 08:31 50.04586 8.57030 368 ft 3 kts 59°
2026-04-18 08:31 50.04576 8.57003 368 ft 3 kts 59°
2026-04-18 08:32 50.04566 8.56976 364 ft 3 kts 64°
2026-04-18 08:32 50.04559 8.56947 365 ft 3 kts 79°
2026-04-18 08:32 50.04557 8.56920 364 ft 3 kts 107°
2026-04-18 08:32 50.04564 8.56900 363 ft 3 kts 167°
2026-04-18 08:33 50.04571 8.56898 363 ft 0 kts 193°
2026-04-18 08:35 50.04566 8.56896 363 ft 2 kts 193°
2026-04-18 08:36 50.04519 8.56879 364 ft 13 kts 193°
2026-04-18 08:36 50.04433 8.56755 370 ft 23 kts 248°
2026-04-18 08:36 50.04368 8.56482 367 ft 28 kts 251°
2026-04-18 08:36 50.04301 8.56198 363 ft 28 kts 250°
2026-04-18 08:37 50.04235 8.55921 361 ft 28 kts 250°
2026-04-18 08:37 50.04169 8.55643 362 ft 28 kts 249°
2026-04-18 08:37 50.04100 8.55356 361 ft 28 kts 250°
2026-04-18 08:37 50.04032 8.55070 365 ft 28 kts 250°
2026-04-18 08:38 50.03964 8.54783 363 ft 28 kts 250°
2026-04-18 08:38 50.03896 8.54496 358 ft 29 kts 249°
2026-04-18 08:38 50.03799 8.54222 360 ft 20 kts 247°
2026-04-18 08:38 50.03749 8.54009 357 ft 22 kts 250°
2026-04-18 08:39 50.03694 8.53780 350 ft 24 kts 250°
2026-04-18 08:39 50.03631 8.53527 353 ft 26 kts 250°
2026-04-18 08:39 50.03566 8.53251 350 ft 26 kts 250°
2026-04-18 08:39 50.03513 8.53039 349 ft 22 kts 249°
2026-04-18 08:40 50.03453 8.52809 338 ft 24 kts 248°
2026-04-18 08:40 50.03372 8.52605 336 ft 23 kts 203°
2026-04-18 08:40 50.03199 8.52595 339 ft 35 kts 179°
2026-04-18 08:40 50.02711 8.52601 336 ft 105 kts 179°
2026-04-18 08:41 50.01758 8.52610 336 ft 167 kts 179°
2026-04-18 08:41 50.00437 8.52635 421 ft 203 kts 179°
2026-04-18 08:41 49.99046 8.52685 1076 ft 196 kts 178°
2026-04-18 08:41 49.97655 8.52783 1622 ft 204 kts 178°
2026-04-18 08:42 49.96234 8.52862 2069 ft 210 kts 177°
2026-04-18 08:42 49.94713 8.52948 2239 ft 227 kts 179°
2026-04-18 08:42 49.93063 8.53068 2444 ft 246 kts 178°
2026-04-18 08:42 49.91300 8.53216 2830 ft 258 kts 181°
2026-04-18 08:43 49.89498 8.53262 3379 ft 262 kts 176°
2026-04-18 08:43 49.87677 8.53517 4003 ft 263 kts 176°
2026-04-18 08:43 49.85849 8.53632 4661 ft 263 kts 181°
2026-04-18 08:43 49.84008 8.53739 5248 ft 265 kts 178°
2026-04-18 08:44 49.82176 8.53852 5808 ft 267 kts 178°
2026-04-18 08:44 49.80318 8.53934 6371 ft 269 kts 179°
2026-04-18 08:44 49.78449 8.54093 6940 ft 270 kts 177°
2026-04-18 08:44 49.76558 8.54131 7499 ft 273 kts 185°
2026-04-18 08:45 49.74662 8.53906 8051 ft 275 kts 185°
2026-04-18 08:45 49.72761 8.53594 8558 ft 277 kts 189°
2026-04-18 08:45 49.70842 8.53214 9013 ft 282 kts 187°
2026-04-18 08:45 49.68880 8.52930 9606 ft 283 kts 186°
2026-04-18 08:46 49.66937 8.52659 10211 ft 285 kts 186°
2026-04-18 08:46 49.64946 8.52347 10539 ft 295 kts 187°
2026-04-18 08:46 49.62824 8.52056 10671 ft 314 kts 186°
2026-04-18 08:46 49.60575 8.51776 10830 ft 334 kts 186°
2026-04-18 08:47 49.58192 8.51474 10983 ft 354 kts 186°
2026-04-18 08:47 49.55682 8.51150 11305 ft 368 kts 186°
2026-04-18 08:47 49.53092 8.50812 11800 ft 377 kts 186°
2026-04-18 08:47 49.50458 8.50467 12454 ft 383 kts 187°
2026-04-18 08:48 49.47792 8.50116 13195 ft 387 kts 187°
2026-04-18 08:48 49.45091 8.49759 13918 ft 392 kts 187°
2026-04-18 08:48 49.42357 8.49398 14533 ft 397 kts 187°
2026-04-18 08:48 49.39593 8.49035 15149 ft 401 kts 188°
2026-04-18 08:49 49.36796 8.48667 15819 ft 405 kts 188°
2026-04-18 08:49 49.33984 8.48298 16488 ft 408 kts 188°
2026-04-18 08:49 49.31140 8.47924 17130 ft 412 kts 188°
2026-04-18 08:49 49.28271 8.47553 17758 ft 416 kts 188°
2026-04-18 08:50 49.25374 8.47187 18400 ft 420 kts 188°
2026-04-18 08:50 49.22441 8.46817 18953 ft 424 kts 188°
2026-04-18 08:50 49.19494 8.46445 19511 ft 427 kts 188°
2026-04-18 08:50 49.16525 8.46072 20077 ft 430 kts 187°
2026-04-18 08:51 49.13532 8.45696 20656 ft 432 kts 187°
2026-04-18 08:51 49.10524 8.45318 21202 ft 435 kts 187°
2026-04-18 08:51 49.07493 8.44928 21757 ft 438 kts 188°
2026-04-18 08:51 49.04520 8.44256 22274 ft 438 kts 195°
2026-04-18 08:52 49.01539 8.43197 22800 ft 440 kts 196°
2026-04-18 08:52 48.98547 8.42105 23313 ft 444 kts 196°
2026-04-18 08:52 48.95534 8.41016 23801 ft 447 kts 196°
2026-04-18 08:52 48.92497 8.39936 24237 ft 449 kts 195°
2026-04-18 08:53 48.89439 8.38864 24682 ft 452 kts 195°
2026-04-18 08:53 48.86362 8.37792 25109 ft 454 kts 195°
2026-04-18 08:53 48.83276 8.36720 25533 ft 456 kts 195°
2026-04-18 08:53 48.80171 8.35640 25954 ft 459 kts 195°
2026-04-18 08:54 48.77053 8.34549 26337 ft 461 kts 196°
2026-04-18 08:54 48.73920 8.33417 26705 ft 464 kts 197°
2026-04-18 08:54 48.70769 8.32263 27082 ft 467 kts 197°
2026-04-18 08:54 48.67609 8.31104 27478 ft 469 kts 197°
2026-04-18 08:55 48.64433 8.29944 27859 ft 471 kts 197°
2026-04-18 08:55 48.61239 8.28783 28208 ft 473 kts 197°
2026-04-18 08:55 48.58065 8.27634 28553 ft 475 kts 197°
2026-04-18 08:55 48.54836 8.26469 28876 ft 477 kts 197°
2026-04-18 08:56 48.51596 8.25300 29187 ft 480 kts 197°
2026-04-18 08:56 48.48344 8.24128 29471 ft 481 kts 197°
2026-04-18 08:56 48.45078 8.22943 29772 ft 483 kts 197°
2026-04-18 08:56 48.41805 8.21749 30109 ft 484 kts 197°
2026-04-18 08:57 48.35278 8.19372 30845 ft 480 kts 197°
2026-04-18 08:57 48.32032 8.18191 31093 ft 481 kts 197°
2026-04-18 08:57 48.28761 8.17004 31143 ft 485 kts 197°
2026-04-18 08:58 48.22282 8.14320 31173 ft 479 kts 204°
2026-04-18 08:58 48.16085 8.10740 31190 ft 476 kts 204°
2026-04-18 08:59 48.09905 8.07178 31185 ft 476 kts 204°
2026-04-18 08:59 48.03698 8.03654 31192 ft 477 kts 204°
2026-04-18 09:00 47.97535 8.00179 31191 ft 477 kts 204°
2026-04-18 09:00 47.91383 7.96723 31193 ft 478 kts 204°
2026-04-18 09:01 47.85139 7.93223 31194 ft 478 kts 204°
2026-04-18 09:01 47.78917 7.89742 31194 ft 478 kts 204°
2026-04-18 09:02 47.72677 7.86260 31187 ft 478 kts 204°
2026-04-18 09:02 47.66449 7.82795 31198 ft 479 kts 204°
2026-04-18 09:03 47.60204 7.79328 31201 ft 479 kts 204°
2026-04-18 09:03 47.54001 7.75892 31207 ft 479 kts 204°
2026-04-18 09:04 47.47751 7.72441 31207 ft 479 kts 204°
2026-04-18 09:04 47.41498 7.68994 31204 ft 480 kts 204°
2026-04-18 09:05 47.35245 7.65551 31214 ft 479 kts 205°
2026-04-18 09:05 47.29431 7.60876 31214 ft 472 kts 218°
2026-04-18 09:06 47.24494 7.54588 31215 ft 469 kts 227°
2026-04-18 09:06 47.19896 7.47856 31221 ft 469 kts 227°
2026-04-18 09:07 47.15244 7.41094 31218 ft 470 kts 227°
2026-04-18 09:07 47.10572 7.34377 31212 ft 471 kts 227°
2026-04-18 09:08 47.05876 7.27666 31214 ft 470 kts 227°
2026-04-18 09:08 47.01176 7.20967 31215 ft 470 kts 227°
2026-04-18 09:09 46.96495 7.14312 31235 ft 469 kts 227°
2026-04-18 09:09 46.91833 7.07699 31231 ft 469 kts 227°
2026-04-18 09:10 46.87140 7.01058 31248 ft 470 kts 227°
2026-04-18 09:10 46.82473 6.94471 31237 ft 471 kts 227°
2026-04-18 09:11 46.77753 6.87827 31238 ft 471 kts 227°
2026-04-18 09:11 46.73027 6.81189 31238 ft 471 kts 226°
2026-04-18 09:12 46.68322 6.74600 31224 ft 471 kts 226°
2026-04-18 09:12 46.63594 6.67996 31233 ft 471 kts 226°
2026-04-18 09:13 46.58855 6.61390 31221 ft 472 kts 226°
2026-04-18 09:13 46.54114 6.54798 31216 ft 472 kts 226°
2026-04-18 09:14 46.49369 6.48218 31213 ft 472 kts 226°
2026-04-18 09:14 46.45000 6.41193 31218 ft 467 kts 236°
2026-04-18 09:15 46.41240 6.33520 31205 ft 466 kts 237°
2026-04-18 09:15 46.38113 6.27174 31202 ft 466 kts 236°
2026-04-18 09:16 46.34324 6.19555 31213 ft 466 kts 236°
2026-04-18 09:16 46.30515 6.11946 31213 ft 467 kts 236°
2026-04-18 09:17 46.26698 6.04346 31211 ft 468 kts 236°
2026-04-18 09:17 46.22899 5.96802 31219 ft 468 kts 236°
2026-04-18 09:18 46.19066 5.89209 31205 ft 467 kts 236°
2026-04-18 09:18 46.15263 5.81696 31204 ft 467 kts 236°
2026-04-18 09:19 46.11432 5.74146 31199 ft 466 kts 236°
2026-04-18 09:19 46.07599 5.66614 31196 ft 466 kts 236°
2026-04-18 09:20 46.03754 5.59079 31196 ft 467 kts 236°
2026-04-18 09:20 45.99992 5.51725 31196 ft 467 kts 236°
2026-04-18 09:21 45.96363 5.44649 31198 ft 467 kts 236°
2026-04-18 09:21 45.92505 5.37147 31200 ft 466 kts 236°
2026-04-18 09:22 45.88647 5.29664 31205 ft 466 kts 236°
2026-04-18 09:22 45.84780 5.22184 31198 ft 466 kts 236°
2026-04-18 09:23 45.80910 5.14718 31214 ft 466 kts 236°
2026-04-18 09:23 45.77062 5.07311 31219 ft 466 kts 235°
2026-04-18 09:24 45.73197 4.99895 31211 ft 466 kts 235°
2026-04-18 09:24 45.69328 4.92491 31200 ft 466 kts 235°
2026-04-18 09:25 45.65443 4.85073 31198 ft 466 kts 235°
2026-04-18 09:25 45.61579 4.77715 31198 ft 466 kts 235°
2026-04-18 09:26 45.57683 4.70316 31207 ft 466 kts 235°
2026-04-18 09:26 45.53788 4.62936 31228 ft 465 kts 235°
2026-04-18 09:27 45.49893 4.55578 31230 ft 465 kts 235°
2026-04-18 09:27 45.45997 4.48236 31230 ft 464 kts 234°
2026-04-18 09:28 45.42093 4.40898 31232 ft 465 kts 234°
2026-04-18 09:28 45.38179 4.33559 31241 ft 466 kts 234°
2026-04-18 09:29 45.34258 4.26223 31232 ft 466 kts 234°
2026-04-18 09:29 45.30330 4.18895 31215 ft 466 kts 234°
2026-04-18 09:30 45.26396 4.11569 31223 ft 466 kts 234°
2026-04-18 09:30 45.22483 4.04294 31214 ft 466 kts 234°
2026-04-18 09:31 45.18580 3.97055 31231 ft 467 kts 234°
2026-04-18 09:31 45.14633 3.89751 31236 ft 467 kts 234°
2026-04-18 09:32 45.10675 3.82447 31242 ft 467 kts 234°
2026-04-18 09:32 45.06718 3.75163 31237 ft 466 kts 234°
2026-04-18 09:33 45.02759 3.67894 31222 ft 465 kts 234°
2026-04-18 09:33 44.98813 3.60668 31214 ft 465 kts 234°
2026-04-18 09:34 44.94888 3.53497 31223 ft 464 kts 234°
2026-04-18 09:34 44.90933 3.46289 31207 ft 464 kts 234°
2026-04-18 09:35 44.86975 3.39096 31218 ft 464 kts 234°
2026-04-18 09:35 44.83014 3.31913 31212 ft 464 kts 234°
2026-04-18 09:36 44.79044 3.24733 31214 ft 465 kts 234°
2026-04-18 09:36 44.75068 3.17561 31214 ft 465 kts 234°
2026-04-18 09:37 44.71085 3.10393 31211 ft 465 kts 234°
2026-04-18 09:37 44.67096 3.03233 31224 ft 464 kts 234°
2026-04-18 09:38 44.63150 2.96167 31212 ft 463 kts 234°
2026-04-18 09:38 44.59172 2.89063 31219 ft 463 kts 233°
2026-04-18 09:39 44.55197 2.81980 31208 ft 461 kts 234°
2026-04-18 09:39 44.51229 2.74926 31206 ft 461 kts 233°
2026-04-18 09:40 44.47281 2.67927 31212 ft 461 kts 233°
2026-04-18 09:40 44.43302 2.60890 31217 ft 460 kts 233°
2026-04-18 09:41 44.39323 2.53871 31205 ft 460 kts 233°
2026-04-18 09:41 44.35345 2.46867 31210 ft 460 kts 233°
2026-04-18 09:42 44.31364 2.39878 31216 ft 460 kts 233°
2026-04-18 09:42 44.27371 2.32883 31215 ft 460 kts 233°
2026-04-18 09:43 44.23379 2.25909 31224 ft 460 kts 233°
2026-04-18 09:43 44.19380 2.18938 31205 ft 460 kts 233°
2026-04-18 09:44 44.15378 2.11979 31213 ft 460 kts 233°
2026-04-18 09:44 44.11375 2.05035 31224 ft 460 kts 233°
2026-04-18 09:45 44.07406 1.98167 31230 ft 460 kts 233°
2026-04-18 09:45 44.03405 1.91259 31221 ft 460 kts 233°
2026-04-18 09:46 43.99391 1.84345 31214 ft 460 kts 232°
2026-04-18 09:46 43.95366 1.77429 31227 ft 460 kts 232°
2026-04-18 09:47 43.91333 1.70516 31226 ft 461 kts 232°
2026-04-18 09:47 43.87295 1.63611 31228 ft 461 kts 232°
2026-04-18 09:48 43.83252 1.56714 31231 ft 461 kts 232°
2026-04-18 09:48 43.79233 1.49872 31252 ft 461 kts 232°
2026-04-18 09:49 43.75185 1.42999 31234 ft 460 kts 232°
2026-04-18 09:49 43.71133 1.36131 31234 ft 460 kts 232°
2026-04-18 09:50 43.67083 1.29272 31231 ft 460 kts 232°
2026-04-18 09:50 43.63100 1.22359 31234 ft 460 kts 233°
2026-04-18 09:51 43.59138 1.15435 31230 ft 460 kts 233°
2026-04-18 09:51 43.55186 1.08558 31213 ft 460 kts 233°
2026-04-18 09:52 43.51193 1.01644 31212 ft 460 kts 233°
2026-04-18 09:52 43.47239 0.94818 31215 ft 460 kts 233°
2026-04-18 09:53 43.43234 0.87923 31238 ft 460 kts 233°
2026-04-18 09:53 43.39234 0.81050 31219 ft 460 kts 233°
2026-04-18 09:54 43.35223 0.74173 31228 ft 460 kts 232°
2026-04-18 09:54 43.31234 0.67351 31216 ft 460 kts 232°
2026-04-18 09:55 43.27216 0.60496 31227 ft 460 kts 232°
2026-04-18 09:55 43.23204 0.53665 31213 ft 460 kts 232°
2026-04-18 09:56 43.19183 0.46836 31219 ft 460 kts 232°
2026-04-18 09:56 43.15165 0.40029 31222 ft 460 kts 232°
2026-04-18 09:57 43.11138 0.33220 31222 ft 460 kts 232°
2026-04-18 09:57 43.07128 0.26458 31215 ft 460 kts 232°
2026-04-18 09:58 43.03091 0.19665 31210 ft 460 kts 232°
2026-04-18 09:58 42.99047 0.12875 31211 ft 460 kts 232°
2026-04-18 09:59 42.94997 0.06092 31210 ft 460 kts 232°
2026-04-18 10:00 42.88961 -0.03993 31216 ft 460 kts 232°
2026-04-18 10:00 42.84913 -0.10738 31210 ft 459 kts 232°
2026-04-18 10:01 42.80880 -0.17415 31197 ft 459 kts 230°
2026-04-18 10:01 42.76278 -0.23469 31200 ft 461 kts 221°
2026-04-18 10:02 42.71345 -0.29061 31200 ft 461 kts 221°
2026-04-18 10:02 42.67259 -0.33715 31180 ft 461 kts 221°
2026-04-18 10:03 42.62348 -0.39329 31183 ft 462 kts 222°
2026-04-18 10:03 42.57438 -0.44947 31174 ft 462 kts 222°
2026-04-18 10:04 42.52524 -0.50561 31167 ft 462 kts 222°
2026-04-18 10:04 42.47604 -0.56167 31168 ft 462 kts 222°
2026-04-18 10:05 42.42673 -0.61774 31164 ft 462 kts 222°
2026-04-18 10:05 42.37742 -0.67367 31156 ft 462 kts 221°
2026-04-18 10:06 42.32808 -0.72953 31158 ft 462 kts 221°
2026-04-18 10:06 42.27909 -0.78487 31158 ft 462 kts 221°
2026-04-18 10:07 42.22968 -0.84055 31158 ft 462 kts 221°
2026-04-18 10:07 42.18028 -0.89612 31148 ft 462 kts 221°
2026-04-18 10:08 42.13094 -0.95153 31167 ft 462 kts 221°
2026-04-18 10:08 42.08199 -1.00636 31167 ft 462 kts 221°
2026-04-18 10:09 42.03277 -1.06139 31166 ft 463 kts 221°
2026-04-18 10:09 41.98320 -1.11669 31171 ft 463 kts 221°
2026-04-18 10:10 41.93360 -1.17190 31178 ft 463 kts 221°
2026-04-18 10:10 41.88387 -1.22714 31176 ft 463 kts 221°
2026-04-18 10:11 41.83428 -1.28211 31176 ft 463 kts 221°
2026-04-18 10:11 41.78466 -1.33701 31177 ft 462 kts 221°
2026-04-18 10:12 41.73499 -1.39184 31169 ft 462 kts 221°
2026-04-18 10:12 41.68527 -1.44662 31176 ft 463 kts 221°
2026-04-18 10:13 41.63578 -1.50103 31170 ft 464 kts 221°
2026-04-18 10:13 41.58589 -1.55578 31170 ft 464 kts 221°
2026-04-18 10:14 41.53593 -1.61048 31169 ft 464 kts 221°
2026-04-18 10:14 41.48602 -1.66501 31165 ft 464 kts 220°
2026-04-18 10:15 41.43602 -1.71952 31159 ft 464 kts 220°
2026-04-18 10:15 41.38604 -1.77392 31158 ft 464 kts 220°
2026-04-18 10:16 41.33636 -1.82786 31154 ft 464 kts 220°
2026-04-18 10:16 41.28630 -1.88211 31153 ft 464 kts 220°
2026-04-18 10:17 41.23616 -1.93634 31161 ft 464 kts 220°
2026-04-18 10:17 41.18598 -1.99051 31153 ft 465 kts 220°
2026-04-18 10:18 41.13634 -2.04397 31154 ft 464 kts 220°
2026-04-18 10:18 41.08612 -2.09796 31154 ft 464 kts 220°
2026-04-18 10:19 41.03623 -2.15148 31156 ft 464 kts 220°
2026-04-18 10:19 40.98601 -2.20526 31154 ft 464 kts 220°
2026-04-18 10:20 40.93575 -2.25896 31154 ft 465 kts 220°
2026-04-18 10:20 40.88546 -2.31257 31158 ft 465 kts 220°
2026-04-18 10:21 40.83516 -2.36600 31157 ft 464 kts 219°
2026-04-18 10:21 40.78452 -2.41853 31158 ft 463 kts 220°
2026-04-18 10:22 40.73470 -2.47211 31152 ft 465 kts 220°
2026-04-18 10:22 40.68437 -2.52589 31157 ft 466 kts 220°
2026-04-18 10:23 40.63376 -2.57942 31160 ft 467 kts 219°
2026-04-18 10:23 40.58301 -2.63286 31161 ft 467 kts 219°
2026-04-18 10:24 40.53235 -2.68611 31159 ft 466 kts 219°
2026-04-18 10:24 40.48162 -2.73933 31159 ft 466 kts 219°
2026-04-18 10:25 40.43093 -2.79242 31162 ft 466 kts 219°
2026-04-18 10:25 40.38022 -2.84541 31183 ft 466 kts 219°
2026-04-18 10:26 40.32944 -2.89840 31181 ft 466 kts 219°
2026-04-18 10:26 40.27864 -2.95128 31168 ft 467 kts 219°
2026-04-18 10:27 40.22814 -3.00375 31165 ft 467 kts 219°
2026-04-18 10:27 40.17724 -3.05654 31190 ft 467 kts 219°
2026-04-18 10:28 40.12657 -3.10898 31165 ft 468 kts 219°
2026-04-18 10:28 40.07544 -3.16179 31167 ft 468 kts 219°
2026-04-18 10:29 40.02433 -3.21449 31184 ft 468 kts 219°
2026-04-18 10:29 39.97316 -3.26714 31157 ft 469 kts 219°
2026-04-18 10:30 39.92191 -3.31978 31174 ft 469 kts 219°
2026-04-18 10:30 39.87060 -3.37237 31167 ft 469 kts 219°
2026-04-18 10:31 39.81917 -3.42500 31170 ft 469 kts 219°
2026-04-18 10:31 39.76882 -3.47888 31173 ft 468 kts 225°
2026-04-18 10:32 39.72351 -3.53893 31158 ft 468 kts 226°
2026-04-18 10:32 39.67792 -3.59942 31163 ft 468 kts 226°
2026-04-18 10:33 39.63206 -3.65962 31158 ft 469 kts 226°
2026-04-18 10:33 39.58606 -3.71977 31152 ft 469 kts 226°
2026-04-18 10:34 39.54011 -3.77978 31155 ft 469 kts 226°
2026-04-18 10:34 39.49412 -3.83984 31134 ft 469 kts 226°
2026-04-18 10:35 39.44811 -3.89985 31155 ft 469 kts 226°
2026-04-18 10:35 39.40207 -3.95977 31158 ft 470 kts 226°
2026-04-18 10:36 39.35667 -4.01875 31154 ft 470 kts 226°
2026-04-18 10:36 39.31050 -4.07860 31158 ft 470 kts 226°
2026-04-18 10:37 39.26430 -4.13837 31147 ft 470 kts 226°
2026-04-18 10:37 39.21796 -4.19821 31156 ft 470 kts 226°
2026-04-18 10:38 39.17163 -4.25791 31154 ft 470 kts 226°
2026-04-18 10:38 39.12536 -4.31742 31154 ft 470 kts 226°
2026-04-18 10:39 39.07903 -4.37690 31154 ft 470 kts 226°
2026-04-18 10:39 39.03292 -4.43597 31138 ft 470 kts 226°
2026-04-18 10:40 38.98658 -4.49525 31144 ft 471 kts 226°
2026-04-18 10:40 38.94005 -4.55464 31149 ft 471 kts 226°
2026-04-18 10:41 38.89342 -4.61394 31151 ft 472 kts 226°
2026-04-18 10:41 38.84670 -4.67323 31146 ft 472 kts 226°
2026-04-18 10:42 38.79997 -4.73245 31131 ft 472 kts 226°
2026-04-18 10:42 38.75322 -4.79159 31130 ft 472 kts 225°
2026-04-18 10:43 38.70652 -4.85056 31135 ft 471 kts 225°
2026-04-18 10:43 38.66008 -4.90908 31128 ft 471 kts 225°
2026-04-18 10:44 38.61333 -4.96790 31131 ft 471 kts 225°
2026-04-18 10:44 38.56702 -5.02606 31129 ft 472 kts 225°
2026-04-18 10:45 38.51995 -5.08389 31118 ft 468 kts 221°
2026-04-18 10:45 38.46441 -5.12834 31136 ft 476 kts 207°
2026-04-18 10:46 38.40404 -5.16419 31131 ft 480 kts 207°
2026-04-18 10:46 38.34373 -5.20160 31130 ft 483 kts 208°
2026-04-18 10:47 38.28339 -5.23924 31120 ft 482 kts 208°
2026-04-18 10:47 38.22317 -5.27659 31120 ft 480 kts 207°
2026-04-18 10:48 38.16357 -5.31339 31124 ft 478 kts 207°
2026-04-18 10:48 38.10380 -5.35020 31119 ft 477 kts 207°
2026-04-18 10:49 38.04400 -5.38697 31114 ft 476 kts 208°
2026-04-18 10:49 37.98447 -5.42352 31117 ft 475 kts 208°
2026-04-18 10:50 37.92492 -5.46000 31123 ft 476 kts 208°
2026-04-18 10:50 37.87537 -5.49032 31120 ft 476 kts 208°
2026-04-18 10:51 37.81554 -5.52686 31106 ft 477 kts 208°
2026-04-18 10:51 37.75568 -5.56335 31110 ft 478 kts 208°
2026-04-18 10:52 37.69570 -5.59985 31110 ft 478 kts 208°
2026-04-18 10:52 37.63568 -5.63632 31101 ft 479 kts 208°
2026-04-18 10:53 37.57564 -5.67273 31091 ft 478 kts 208°
2026-04-18 10:53 37.51558 -5.70909 31100 ft 478 kts 208°
2026-04-18 10:54 37.45564 -5.74555 31099 ft 477 kts 210°
2026-04-18 10:54 37.40016 -5.79045 31106 ft 473 kts 220°
2026-04-18 10:55 37.35007 -5.84413 31110 ft 472 kts 222°
2026-04-18 10:55 37.30046 -5.89751 31100 ft 473 kts 222°
2026-04-18 10:56 37.25027 -5.95100 31094 ft 473 kts 222°
2026-04-18 10:56 37.20044 -6.00382 31093 ft 473 kts 222°
2026-04-18 10:57 37.15019 -6.05694 31088 ft 473 kts 222°
2026-04-18 10:57 37.09980 -6.11014 31095 ft 472 kts 221°
2026-04-18 10:58 37.04950 -6.16315 31091 ft 472 kts 222°
2026-04-18 10:58 36.99934 -6.21592 31096 ft 471 kts 222°
2026-04-18 10:59 36.94945 -6.26832 31098 ft 471 kts 222°
2026-04-18 10:59 36.89927 -6.32093 31096 ft 471 kts 222°
2026-04-18 11:00 36.84910 -6.37344 31101 ft 470 kts 222°
2026-04-18 11:00 36.79886 -6.42591 31100 ft 470 kts 222°
2026-04-18 11:01 36.74865 -6.47828 31106 ft 470 kts 222°
2026-04-18 11:01 36.69852 -6.53046 31098 ft 469 kts 222°
2026-04-18 11:02 36.62364 -6.60826 31095 ft 469 kts 222°
2026-04-18 11:02 36.57356 -6.66017 31095 ft 469 kts 222°
2026-04-18 11:03 36.52345 -6.71205 31096 ft 468 kts 222°
2026-04-18 11:03 36.47334 -6.76376 31100 ft 468 kts 222°
2026-04-18 11:04 36.42315 -6.81544 31095 ft 468 kts 222°
2026-04-18 11:04 36.37295 -6.86705 31104 ft 469 kts 222°
2026-04-18 11:05 36.32267 -6.91868 31097 ft 469 kts 222°
2026-04-18 11:05 36.27276 -6.96985 31090 ft 469 kts 221°
2026-04-18 11:06 36.22314 -7.02064 31099 ft 469 kts 221°
2026-04-18 11:06 36.17275 -7.07212 31098 ft 470 kts 221°
2026-04-18 11:07 36.12229 -7.12358 31096 ft 470 kts 221°
2026-04-18 11:07 36.07182 -7.17497 31092 ft 470 kts 221°
2026-04-18 11:08 36.02124 -7.22638 31081 ft 470 kts 221°
2026-04-18 11:08 35.97072 -7.27765 31091 ft 470 kts 221°
2026-04-18 11:09 35.92010 -7.32894 31092 ft 470 kts 221°
2026-04-18 11:09 35.86951 -7.38011 31091 ft 471 kts 221°
2026-04-18 11:10 35.81911 -7.43095 31091 ft 471 kts 221°
2026-04-18 11:10 35.76821 -7.48176 31088 ft 471 kts 220°
2026-04-18 11:11 35.71724 -7.53246 31091 ft 471 kts 220°
2026-04-18 11:11 35.66627 -7.58314 31090 ft 471 kts 220°
2026-04-18 11:12 35.61531 -7.63377 31092 ft 471 kts 221°
2026-04-18 11:12 35.56436 -7.68431 31089 ft 470 kts 221°
2026-04-18 11:13 35.51341 -7.73476 31090 ft 470 kts 221°
2026-04-18 11:13 35.46254 -7.78507 31085 ft 470 kts 220°
2026-04-18 11:14 35.41185 -7.83510 31086 ft 470 kts 220°
2026-04-18 11:14 35.36093 -7.88579 31089 ft 470 kts 221°
2026-04-18 11:15 35.31024 -7.93651 31094 ft 471 kts 221°
2026-04-18 11:15 35.25948 -7.98720 31089 ft 471 kts 221°
2026-04-18 11:16 35.20973 -8.03675 31079 ft 472 kts 220°
2026-04-18 11:16 35.15864 -8.08751 31092 ft 473 kts 220°
2026-04-18 11:17 35.10751 -8.13823 31096 ft 474 kts 220°
2026-04-18 11:17 35.05627 -8.18897 31094 ft 474 kts 220°
2026-04-18 11:18 35.00498 -8.23969 31098 ft 475 kts 220°
2026-04-18 11:18 34.95400 -8.29001 31084 ft 475 kts 220°
2026-04-18 11:19 34.90244 -8.34083 31095 ft 475 kts 220°
2026-04-18 11:19 34.85099 -8.39144 31096 ft 475 kts 220°
2026-04-18 11:20 34.79954 -8.44198 31101 ft 475 kts 220°
2026-04-18 11:20 34.74807 -8.49245 31098 ft 475 kts 220°
2026-04-18 11:21 34.69695 -8.54250 31098 ft 474 kts 220°
2026-04-18 11:21 34.64556 -8.59272 31108 ft 473 kts 220°
2026-04-18 11:22 34.59426 -8.64279 31096 ft 473 kts 220°
2026-04-18 11:22 34.54297 -8.69276 31098 ft 472 kts 220°
2026-04-18 11:23 34.49167 -8.74267 31095 ft 472 kts 220°
2026-04-18 11:23 34.44044 -8.79243 31099 ft 471 kts 220°
2026-04-18 11:24 34.38932 -8.84169 31087 ft 471 kts 220°
2026-04-18 11:24 34.33796 -8.89095 31091 ft 471 kts 220°
2026-04-18 11:25 34.28661 -8.94018 31105 ft 471 kts 220°
2026-04-18 11:25 34.23521 -8.98941 31106 ft 471 kts 220°
2026-04-18 11:26 34.18460 -9.03782 31102 ft 471 kts 220°
2026-04-18 11:26 34.13315 -9.08696 31071 ft 472 kts 220°
2026-04-18 11:27 34.08197 -9.13576 31097 ft 472 kts 220°
2026-04-18 11:27 34.03048 -9.18477 31101 ft 471 kts 220°
2026-04-18 11:28 33.97899 -9.23371 31101 ft 471 kts 220°
2026-04-18 11:28 33.92747 -9.28260 31098 ft 471 kts 220°
2026-04-18 11:29 33.87597 -9.33139 31097 ft 471 kts 220°
2026-04-18 11:29 33.82440 -9.38017 31098 ft 471 kts 219°
2026-04-18 11:30 33.77286 -9.42885 31098 ft 471 kts 219°
2026-04-18 11:30 33.72164 -9.47715 31100 ft 471 kts 219°
2026-04-18 11:31 33.66997 -9.52579 31093 ft 471 kts 219°
2026-04-18 11:31 33.61843 -9.57424 31093 ft 470 kts 219°
2026-04-18 11:32 33.56689 -9.62262 31086 ft 470 kts 219°
2026-04-18 11:32 33.51533 -9.67093 31093 ft 470 kts 219°
2026-04-18 11:33 33.46376 -9.71919 31092 ft 470 kts 219°
2026-04-18 11:33 33.41215 -9.76740 31094 ft 471 kts 219°
2026-04-18 11:34 33.36080 -9.81529 31090 ft 471 kts 219°
2026-04-18 11:34 33.30910 -9.86344 31095 ft 471 kts 219°
2026-04-18 11:35 33.25741 -9.91151 31084 ft 471 kts 219°
2026-04-18 11:35 33.20572 -9.95951 31090 ft 471 kts 219°
2026-04-18 11:36 33.15481 -10.00671 31090 ft 471 kts 219°
2026-04-18 11:36 33.10306 -10.05461 31090 ft 471 kts 219°
2026-04-18 11:37 33.05127 -10.10250 31084 ft 471 kts 219°
2026-04-18 11:37 32.99952 -10.15025 31084 ft 471 kts 219°
2026-04-18 11:38 32.95634 -10.18999 31085 ft 471 kts 219°
2026-04-18 11:38 32.89608 -10.24539 31082 ft 471 kts 219°
2026-04-18 11:39 32.85263 -10.28529 31081 ft 470 kts 219°
2026-04-18 11:39 32.80081 -10.33282 31082 ft 470 kts 219°
2026-04-18 11:40 32.74926 -10.38003 31083 ft 470 kts 219°
2026-04-18 11:40 32.69742 -10.42743 31072 ft 470 kts 219°
2026-04-18 11:41 32.64557 -10.47477 31076 ft 470 kts 219°
2026-04-18 11:41 32.59369 -10.52207 31074 ft 471 kts 219°
2026-04-18 11:42 32.54170 -10.56939 31076 ft 471 kts 219°
2026-04-18 11:42 32.49008 -10.61631 31074 ft 471 kts 218°
2026-04-18 11:43 32.43778 -10.66379 31070 ft 470 kts 218°
2026-04-18 11:43 32.38619 -10.71053 31069 ft 470 kts 219°
2026-04-18 11:44 32.33430 -10.75749 31069 ft 470 kts 218°
2026-04-18 11:44 32.28231 -10.80446 31069 ft 470 kts 218°
2026-04-18 11:45 32.23033 -10.85136 31063 ft 470 kts 218°
2026-04-18 11:45 32.17827 -10.89827 31062 ft 470 kts 218°
2026-04-18 11:46 32.12632 -10.94500 31060 ft 471 kts 218°
2026-04-18 11:46 32.07420 -10.99182 31060 ft 470 kts 218°
2026-04-18 11:47 32.02287 -11.03786 31057 ft 470 kts 218°
2026-04-18 11:47 31.97078 -11.08452 31057 ft 470 kts 218°
2026-04-18 11:48 31.91862 -11.13117 31057 ft 470 kts 218°
2026-04-18 11:48 31.86687 -11.17739 31055 ft 470 kts 218°
2026-04-18 11:49 31.81478 -11.22385 31051 ft 470 kts 218°
2026-04-18 11:49 31.76251 -11.27041 31051 ft 471 kts 218°
2026-04-18 11:50 31.71029 -11.31689 31059 ft 471 kts 218°
2026-04-18 11:50 31.65809 -11.36337 31052 ft 471 kts 218°
2026-04-18 11:51 31.60580 -11.40989 31049 ft 471 kts 218°
2026-04-18 11:51 31.55355 -11.45630 31032 ft 471 kts 218°
2026-04-18 11:52 31.50159 -11.50239 31043 ft 471 kts 218°
2026-04-18 11:52 31.44931 -11.54868 31043 ft 471 kts 218°
2026-04-18 11:53 31.39696 -11.59498 31043 ft 471 kts 218°
2026-04-18 11:53 31.34461 -11.64120 31043 ft 471 kts 218°
2026-04-18 11:54 31.29221 -11.68741 31038 ft 471 kts 218°
2026-04-18 11:54 31.23976 -11.73343 31032 ft 470 kts 217°
2026-04-18 11:55 31.18866 -11.77978 31029 ft 467 kts 219°
2026-04-18 11:55 31.13644 -11.82538 31043 ft 470 kts 217°
2026-04-18 11:56 31.08372 -11.87078 31045 ft 472 kts 217°
2026-04-18 11:56 31.03104 -11.91666 31042 ft 473 kts 218°
2026-04-18 11:57 30.97845 -11.96266 31037 ft 473 kts 218°
2026-04-18 11:57 30.92652 -12.00805 31031 ft 473 kts 218°
2026-04-18 11:58 30.87424 -12.05365 31047 ft 472 kts 217°
2026-04-18 11:58 30.82166 -12.09943 31034 ft 472 kts 217°
2026-04-18 11:59 30.76910 -12.14513 31036 ft 471 kts 217°
2026-04-18 11:59 30.71654 -12.19077 31035 ft 471 kts 217°
2026-04-18 12:00 30.66400 -12.23632 31038 ft 471 kts 217°
2026-04-18 12:00 30.61148 -12.28181 31038 ft 470 kts 217°
2026-04-18 12:01 30.53309 -12.34960 31035 ft 470 kts 217°
2026-04-18 12:02 30.48060 -12.39485 31033 ft 470 kts 217°
2026-04-18 12:02 30.42799 -12.44000 31037 ft 470 kts 217°
2026-04-18 12:03 30.37542 -12.48507 31031 ft 470 kts 217°
2026-04-18 12:03 30.32282 -12.53012 31027 ft 469 kts 218°
2026-04-18 12:04 30.27030 -12.57506 31033 ft 469 kts 217°
2026-04-18 12:04 30.21778 -12.61994 31032 ft 469 kts 217°
2026-04-18 12:05 30.16556 -12.66452 31036 ft 469 kts 217°
2026-04-18 12:05 30.11298 -12.70933 31030 ft 469 kts 217°
2026-04-18 12:06 30.06046 -12.75414 31027 ft 469 kts 218°
2026-04-18 12:06 30.00800 -12.79901 31038 ft 469 kts 217°
2026-04-18 12:07 29.95553 -12.84384 31022 ft 469 kts 217°
2026-04-18 12:07 29.90313 -12.88854 31024 ft 468 kts 217°
2026-04-18 12:08 29.85069 -12.93320 31024 ft 468 kts 217°
2026-04-18 12:08 29.79834 -12.97773 31021 ft 468 kts 217°
2026-04-18 12:09 29.74648 -13.02177 31011 ft 468 kts 217°
2026-04-18 12:09 29.69439 -13.06596 31018 ft 468 kts 217°
2026-04-18 12:10 29.64195 -13.11039 31020 ft 469 kts 217°
2026-04-18 12:10 29.58936 -13.15489 31022 ft 469 kts 217°
2026-04-18 12:11 29.53675 -13.19933 31018 ft 469 kts 217°
2026-04-18 12:11 29.48414 -13.24373 31017 ft 469 kts 217°
2026-04-18 12:12 29.43189 -13.28776 31009 ft 469 kts 217°
2026-04-18 12:12 29.37932 -13.33201 31013 ft 469 kts 217°
2026-04-18 12:13 29.32663 -13.37629 31011 ft 469 kts 217°
2026-04-18 12:13 29.27401 -13.42047 31011 ft 469 kts 217°
2026-04-18 12:14 29.22142 -13.46458 31007 ft 468 kts 217°
2026-04-18 12:14 29.16929 -13.50887 31001 ft 466 kts 217°
2026-04-18 12:15 29.11431 -13.54860 30989 ft 468 kts 212°
2026-04-18 12:15 29.05870 -13.58765 30991 ft 470 kts 213°
2026-04-18 12:16 29.00310 -13.62711 30994 ft 471 kts 213°
2026-04-18 12:16 28.94787 -13.66646 30996 ft 471 kts 213°
2026-04-18 12:17 28.89217 -13.70610 30993 ft 471 kts 213°
2026-04-18 12:17 28.83661 -13.74557 30995 ft 470 kts 213°
2026-04-18 12:18 28.78115 -13.78490 30995 ft 468 kts 213°
2026-04-18 12:18 28.72583 -13.82410 31000 ft 467 kts 213°
2026-04-18 12:19 28.67054 -13.86321 31017 ft 467 kts 213°
2026-04-18 12:19 28.61540 -13.90216 31017 ft 466 kts 213°
2026-04-18 12:20 28.56061 -13.94083 31023 ft 465 kts 213°
2026-04-18 12:20 28.50570 -13.97973 31004 ft 461 kts 215°
2026-04-18 12:21 28.45647 -14.01451 31025 ft 461 kts 212°
2026-04-18 12:21 28.40143 -14.05249 31017 ft 464 kts 213°
2026-04-18 12:22 28.34639 -14.09132 30979 ft 467 kts 213°
2026-04-18 12:22 28.29104 -14.13032 30982 ft 468 kts 213°
2026-04-18 12:23 28.23599 -14.16895 30987 ft 468 kts 213°
2026-04-18 12:23 28.18062 -14.20768 30976 ft 467 kts 214°
2026-04-18 12:24 28.12546 -14.24621 30974 ft 463 kts 214°
2026-04-18 12:24 28.07076 -14.28439 30974 ft 460 kts 214°
2026-04-18 12:25 28.01631 -14.32235 30978 ft 458 kts 214°
2026-04-18 12:25 27.96205 -14.36014 30978 ft 458 kts 214°
2026-04-18 12:26 27.90803 -14.39771 30980 ft 459 kts 214°
2026-04-18 12:26 27.85361 -14.43551 30981 ft 459 kts 214°
2026-04-18 12:27 27.79906 -14.47337 30976 ft 460 kts 214°
2026-04-18 12:27 27.74452 -14.51116 30976 ft 460 kts 214°
2026-04-18 12:28 27.69908 -14.54261 30977 ft 461 kts 214°
2026-04-18 12:28 27.64437 -14.58045 30978 ft 461 kts 213°
2026-04-18 12:29 27.58976 -14.61816 30973 ft 459 kts 213°
2026-04-18 12:29 27.53534 -14.65570 30963 ft 458 kts 213°
2026-04-18 12:30 27.48108 -14.69309 30965 ft 456 kts 213°
2026-04-18 12:30 27.42689 -14.73038 30970 ft 456 kts 213°
2026-04-18 12:31 27.37312 -14.76735 30967 ft 456 kts 213°
2026-04-18 12:31 27.31897 -14.80453 30965 ft 456 kts 213°
2026-04-18 12:32 27.26472 -14.84174 30957 ft 457 kts 213°
2026-04-18 12:32 27.21040 -14.87896 30973 ft 457 kts 213°
2026-04-18 12:33 27.15600 -14.91618 30970 ft 458 kts 213°
2026-04-18 12:33 27.10147 -14.95345 30954 ft 459 kts 213°
2026-04-18 12:34 27.04719 -14.99051 30970 ft 460 kts 213°
2026-04-18 12:34 26.99312 -15.02738 30961 ft 460 kts 213°
2026-04-18 12:35 26.93840 -15.06465 30963 ft 460 kts 213°
2026-04-18 12:35 26.88362 -15.10193 30963 ft 460 kts 213°
2026-04-18 12:36 26.82893 -15.13910 30946 ft 460 kts 213°
2026-04-18 12:36 26.77428 -15.17621 30948 ft 459 kts 213°
2026-04-18 12:37 26.71992 -15.21307 30960 ft 459 kts 213°
2026-04-18 12:37 26.66527 -15.25007 30954 ft 459 kts 213°
2026-04-18 12:38 26.61052 -15.28710 30948 ft 459 kts 213°
2026-04-18 12:38 26.55583 -15.32407 30949 ft 460 kts 213°
2026-04-18 12:39 26.50099 -15.36110 30944 ft 461 kts 213°
2026-04-18 12:39 26.44610 -15.39812 30946 ft 461 kts 213°
2026-04-18 12:40 26.39149 -15.43492 30941 ft 462 kts 213°
2026-04-18 12:40 26.33639 -15.47200 30943 ft 462 kts 213°
2026-04-18 12:41 26.28132 -15.50901 30933 ft 462 kts 213°
2026-04-18 12:41 26.22636 -15.54592 30933 ft 461 kts 213°
2026-04-18 12:42 26.17134 -15.58282 30938 ft 461 kts 213°
2026-04-18 12:42 26.11636 -15.61965 30934 ft 461 kts 213°
2026-04-18 12:43 26.06140 -15.65644 30939 ft 461 kts 213°
2026-04-18 12:43 26.00670 -15.69300 30937 ft 461 kts 213°
2026-04-18 12:44 25.95190 -15.72959 30926 ft 460 kts 213°
2026-04-18 12:44 25.89704 -15.76618 30931 ft 459 kts 213°
2026-04-18 12:45 25.84230 -15.80265 30927 ft 459 kts 213°
2026-04-18 12:45 25.78786 -15.83889 30929 ft 459 kts 213°
2026-04-18 12:46 25.73308 -15.87531 30927 ft 459 kts 213°
2026-04-18 12:46 25.67829 -15.91170 30914 ft 459 kts 213°
2026-04-18 12:47 25.62345 -15.94808 30922 ft 459 kts 213°
2026-04-18 12:47 25.56863 -15.98441 30927 ft 460 kts 213°
2026-04-18 12:48 25.51479 -16.02005 30931 ft 460 kts 213°
2026-04-18 12:48 25.45989 -16.05636 30925 ft 460 kts 213°
2026-04-18 12:49 25.40484 -16.09272 30926 ft 460 kts 213°
2026-04-18 12:49 25.34990 -16.12897 30910 ft 460 kts 213°
2026-04-18 12:50 25.29493 -16.16521 30920 ft 460 kts 213°
2026-04-18 12:50 25.23994 -16.20142 30925 ft 460 kts 213°
2026-04-18 12:51 25.18519 -16.23743 30921 ft 461 kts 213°
2026-04-18 12:51 25.13005 -16.27367 30921 ft 461 kts 213°
2026-04-18 12:52 25.07486 -16.30990 30921 ft 461 kts 213°
2026-04-18 12:52 25.01972 -16.34606 30907 ft 461 kts 213°
2026-04-18 12:53 24.96502 -16.38187 30920 ft 461 kts 213°
2026-04-18 12:53 24.90990 -16.41789 30921 ft 461 kts 213°
2026-04-18 12:54 24.85472 -16.45392 30921 ft 461 kts 213°
2026-04-18 12:54 24.79951 -16.48994 30915 ft 461 kts 213°
2026-04-18 12:55 24.74424 -16.52596 30916 ft 461 kts 213°
2026-04-18 12:55 24.68918 -16.56181 30906 ft 461 kts 213°
2026-04-18 12:56 24.63409 -16.59765 30914 ft 460 kts 213°
2026-04-18 12:56 24.57909 -16.63339 30909 ft 459 kts 213°
2026-04-18 12:57 24.52417 -16.66904 30911 ft 458 kts 213°
2026-04-18 12:57 24.46930 -16.70462 30917 ft 458 kts 213°
2026-04-18 12:58 24.41439 -16.74020 30909 ft 458 kts 213°
2026-04-18 12:58 24.35940 -16.77579 30899 ft 459 kts 213°
2026-04-18 12:59 24.30438 -16.81135 30908 ft 459 kts 213°
2026-04-18 12:59 24.24970 -16.84667 30907 ft 459 kts 213°
2026-04-18 13:00 24.19465 -16.88219 30907 ft 459 kts 213°
2026-04-18 13:00 24.13963 -16.91765 30907 ft 459 kts 213°
2026-04-18 13:01 24.08457 -16.95310 30906 ft 459 kts 213°
2026-04-18 13:01 24.02952 -16.98851 30888 ft 459 kts 213°
2026-04-18 13:02 23.97524 -17.02339 30899 ft 459 kts 213°
2026-04-18 13:02 23.92015 -17.05876 30909 ft 459 kts 213°
2026-04-18 13:03 23.86535 -17.09391 30898 ft 459 kts 213°
2026-04-18 13:03 23.78273 -17.14682 30899 ft 459 kts 213°
2026-04-18 13:04 23.72770 -17.18203 30898 ft 458 kts 213°
2026-04-18 13:04 23.67261 -17.21723 30898 ft 458 kts 213°
2026-04-18 13:05 23.61749 -17.25243 30899 ft 458 kts 213°
2026-04-18 13:05 23.56276 -17.28734 30898 ft 458 kts 213°
2026-04-18 13:06 23.50767 -17.32244 30899 ft 458 kts 213°
2026-04-18 13:06 23.45262 -17.35748 30899 ft 458 kts 213°
2026-04-18 13:07 23.39753 -17.39252 30898 ft 458 kts 213°
2026-04-18 13:07 23.34245 -17.42752 30899 ft 458 kts 213°
2026-04-18 13:08 23.28736 -17.46248 30898 ft 457 kts 213°
2026-04-18 13:08 23.23264 -17.49718 30901 ft 457 kts 213°
2026-04-18 13:09 23.17768 -17.53200 30901 ft 457 kts 213°
2026-04-18 13:09 23.12267 -17.56682 30901 ft 457 kts 213°
2026-04-18 13:10 23.06774 -17.60155 30902 ft 457 kts 213°
2026-04-18 13:10 23.01271 -17.63631 30903 ft 457 kts 214°
2026-04-18 13:11 22.95779 -17.67098 30907 ft 458 kts 214°
2026-04-18 13:11 22.90290 -17.70559 30905 ft 459 kts 214°
2026-04-18 13:12 22.84765 -17.74039 30905 ft 459 kts 214°
2026-04-18 13:12 22.79235 -17.77518 30909 ft 459 kts 214°
2026-04-18 13:13 22.73704 -17.80996 30908 ft 459 kts 214°
2026-04-18 13:13 22.68179 -17.84464 30899 ft 458 kts 214°
2026-04-18 13:14 22.62656 -17.87931 30903 ft 458 kts 214°
2026-04-18 13:14 22.57166 -17.91374 30911 ft 459 kts 214°
2026-04-18 13:15 22.51639 -17.94836 30913 ft 459 kts 214°
2026-04-18 13:15 22.46110 -17.98295 30911 ft 459 kts 214°
2026-04-18 13:16 22.40648 -18.01710 30911 ft 459 kts 214°
2026-04-18 13:16 22.35112 -18.05168 30898 ft 459 kts 214°
2026-04-18 13:17 22.29610 -18.08601 30913 ft 459 kts 214°
2026-04-18 13:17 22.24073 -18.12054 30904 ft 460 kts 214°
2026-04-18 13:18 22.19426 -18.14948 30910 ft 460 kts 214°
2026-04-18 13:18 22.13919 -18.18375 30910 ft 460 kts 214°
2026-04-18 13:19 22.08374 -18.21823 30907 ft 459 kts 214°
2026-04-18 13:19 22.02834 -18.25265 30913 ft 459 kts 214°
2026-04-18 13:20 21.97298 -18.28701 30914 ft 459 kts 214°
2026-04-18 13:20 21.91792 -18.32117 30909 ft 460 kts 214°
2026-04-18 13:21 21.86244 -18.35554 30913 ft 460 kts 214°
2026-04-18 13:21 21.80699 -18.38987 30912 ft 460 kts 214°
2026-04-18 13:22 21.75150 -18.42419 30910 ft 460 kts 214°
2026-04-18 13:22 21.69601 -18.45846 30900 ft 460 kts 215°
2026-04-18 13:23 21.64051 -18.49273 30910 ft 460 kts 215°
2026-04-18 13:23 21.58493 -18.52702 30912 ft 460 kts 215°
2026-04-18 13:24 21.52944 -18.56122 30909 ft 460 kts 215°
2026-04-18 13:24 21.47426 -18.59520 30912 ft 460 kts 215°
2026-04-18 13:25 21.41876 -18.62934 30913 ft 460 kts 215°
2026-04-18 13:25 21.36319 -18.66351 30901 ft 460 kts 215°
2026-04-18 13:26 21.30764 -18.69762 30908 ft 460 kts 215°
2026-04-18 13:26 21.25202 -18.73172 30914 ft 460 kts 215°
2026-04-18 13:27 21.19628 -18.76587 30916 ft 461 kts 215°
2026-04-18 13:27 21.14100 -18.79972 30914 ft 461 kts 215°
2026-04-18 13:28 21.08534 -18.83377 30913 ft 461 kts 215°
2026-04-18 13:28 21.02966 -18.86780 30895 ft 461 kts 216°
2026-04-18 13:29 20.97403 -18.90178 30910 ft 461 kts 216°
2026-04-18 13:29 20.91833 -18.93577 30914 ft 461 kts 216°
2026-04-18 13:30 20.86256 -18.96978 30916 ft 461 kts 216°
2026-04-18 13:30 20.80760 -19.00326 30921 ft 461 kts 216°
2026-04-18 13:31 20.75223 -19.03697 30925 ft 461 kts 215°
2026-04-18 13:31 20.69604 -19.07113 30897 ft 461 kts 216°
2026-04-18 13:32 20.64077 -19.10470 30918 ft 460 kts 216°
2026-04-18 13:32 20.58521 -19.13843 30925 ft 459 kts 216°
2026-04-18 13:33 20.52976 -19.17207 30928 ft 458 kts 216°
2026-04-18 13:33 20.47434 -19.20567 30925 ft 458 kts 216°
2026-04-18 13:34 20.41894 -19.23923 30922 ft 458 kts 216°
2026-04-18 13:34 20.36346 -19.27280 30924 ft 458 kts 216°
2026-04-18 13:35 20.30796 -19.30635 30924 ft 459 kts 216°
2026-04-18 13:35 20.25246 -19.33988 30923 ft 459 kts 216°
2026-04-18 13:36 20.19690 -19.37342 30927 ft 459 kts 216°
2026-04-18 13:36 20.14164 -19.40675 30923 ft 459 kts 216°
2026-04-18 13:37 20.08602 -19.44026 30923 ft 459 kts 216°
2026-04-18 13:37 20.03009 -19.47393 30924 ft 459 kts 216°
2026-04-18 13:38 19.97503 -19.50705 30918 ft 458 kts 217°
2026-04-18 13:38 19.91963 -19.54035 30926 ft 457 kts 217°
2026-04-18 13:39 19.86439 -19.57353 30925 ft 456 kts 217°
2026-04-18 13:39 19.80915 -19.60669 30926 ft 456 kts 217°
2026-04-18 13:40 19.75386 -19.63985 30927 ft 456 kts 217°
2026-04-18 13:40 19.69858 -19.67298 30926 ft 456 kts 217°
2026-04-18 13:41 19.64368 -19.70586 30923 ft 455 kts 217°
2026-04-18 13:41 19.58853 -19.73885 30925 ft 455 kts 217°
2026-04-18 13:42 19.53336 -19.77182 30926 ft 455 kts 217°
2026-04-18 13:42 19.47812 -19.80481 30939 ft 455 kts 217°
2026-04-18 13:43 19.42288 -19.83779 30925 ft 455 kts 217°
2026-04-18 13:43 19.36766 -19.87072 30927 ft 455 kts 217°
2026-04-18 13:44 19.31243 -19.90364 30922 ft 455 kts 217°
2026-04-18 13:44 19.25762 -19.93629 30925 ft 454 kts 217°
2026-04-18 13:45 19.20252 -19.96909 30927 ft 454 kts 217°
2026-04-18 13:45 19.14808 -20.00146 30926 ft 454 kts 217°
2026-04-18 13:46 19.09297 -20.03422 30926 ft 454 kts 217°
2026-04-18 13:46 19.03776 -20.06700 30927 ft 455 kts 217°
2026-04-18 13:47 18.98274 -20.09964 30904 ft 454 kts 217°
2026-04-18 13:47 18.92761 -20.13232 30924 ft 454 kts 218°
2026-04-18 13:48 18.87236 -20.16505 30931 ft 455 kts 218°
2026-04-18 13:48 18.81712 -20.19776 30926 ft 455 kts 218°
2026-04-18 13:49 18.76215 -20.23027 30927 ft 455 kts 218°
2026-04-18 13:49 18.70684 -20.26296 30929 ft 455 kts 218°
2026-04-18 13:50 18.65157 -20.29560 30892 ft 455 kts 218°
2026-04-18 13:50 18.59618 -20.32829 30917 ft 456 kts 218°
2026-04-18 13:51 18.54076 -20.36098 30941 ft 457 kts 218°
2026-04-18 13:51 18.48551 -20.39355 30927 ft 458 kts 218°
2026-04-18 13:52 18.42992 -20.42628 30925 ft 458 kts 218°
2026-04-18 13:52 18.37421 -20.45905 30926 ft 458 kts 218°
2026-04-18 13:53 18.31856 -20.49177 30927 ft 458 kts 218°
2026-04-18 13:53 18.26287 -20.52448 30922 ft 459 kts 218°
2026-04-18 13:54 18.20706 -20.55726 30927 ft 460 kts 218°
2026-04-18 13:54 18.15109 -20.59010 30928 ft 461 kts 218°
2026-04-18 13:55 18.09506 -20.62294 30926 ft 461 kts 218°
2026-04-18 13:55 18.03938 -20.65555 30926 ft 461 kts 218°
2026-04-18 13:56 17.98330 -20.68837 30920 ft 461 kts 218°
2026-04-18 13:56 17.92723 -20.72117 30915 ft 461 kts 218°
2026-04-18 13:57 17.87106 -20.75400 30919 ft 462 kts 218°
2026-04-18 13:57 17.81487 -20.78682 30925 ft 462 kts 218°
2026-04-18 13:58 17.75862 -20.81965 30919 ft 463 kts 218°
2026-04-18 13:58 17.70223 -20.85254 30925 ft 464 kts 218°
2026-04-18 13:59 17.64603 -20.88530 30923 ft 464 kts 218°
2026-04-18 13:59 17.58947 -20.91823 30908 ft 465 kts 218°
2026-04-18 14:00 17.53274 -20.95125 30920 ft 466 kts 218°
2026-04-18 14:00 17.47630 -20.98408 30927 ft 467 kts 218°
2026-04-18 14:01 17.42016 -21.01670 30923 ft 468 kts 218°
2026-04-18 14:01 17.36322 -21.04976 30922 ft 468 kts 218°
2026-04-18 14:02 17.30625 -21.08281 30926 ft 468 kts 218°
2026-04-18 14:02 17.24931 -21.11582 30901 ft 467 kts 218°
2026-04-18 14:03 17.19236 -21.14883 30919 ft 468 kts 218°
2026-04-18 14:03 17.13527 -21.18190 30922 ft 470 kts 218°
2026-04-18 14:04 17.07838 -21.21482 30924 ft 470 kts 218°
2026-04-18 14:04 17.02107 -21.24796 30924 ft 471 kts 218°
2026-04-18 14:05 16.96376 -21.28106 30920 ft 471 kts 218°
2026-04-18 14:05 16.90646 -21.31415 30920 ft 470 kts 218°
2026-04-18 14:06 16.84945 -21.34704 30913 ft 470 kts 218°
2026-04-18 14:06 16.79217 -21.38007 30915 ft 470 kts 218°
2026-04-18 14:07 16.74426 -21.40768 30918 ft 470 kts 218°
2026-04-18 14:07 16.68704 -21.44063 30915 ft 470 kts 218°
2026-04-18 14:08 16.60129 -21.48998 30910 ft 470 kts 218°
2026-04-18 14:09 16.54435 -21.52272 30897 ft 470 kts 218°
2026-04-18 14:09 16.48702 -21.55566 30914 ft 471 kts 218°
2026-04-18 14:10 16.42946 -21.58871 30912 ft 472 kts 218°
2026-04-18 14:10 16.37182 -21.62178 30910 ft 473 kts 218°
2026-04-18 14:11 16.31411 -21.65487 30912 ft 473 kts 218°
2026-04-18 14:11 16.25630 -21.68798 30907 ft 473 kts 218°
2026-04-18 14:12 16.19894 -21.72083 30904 ft 473 kts 218°
2026-04-18 14:12 16.14121 -21.75386 30905 ft 474 kts 218°
2026-04-18 14:13 16.08336 -21.78695 30904 ft 474 kts 218°
2026-04-18 14:13 16.02545 -21.82005 30905 ft 475 kts 218°
2026-04-18 14:14 15.96759 -21.85310 30905 ft 475 kts 218°
2026-04-18 14:14 15.90959 -21.88618 30907 ft 475 kts 218°
2026-04-18 14:15 15.85193 -21.91902 30899 ft 475 kts 217°
2026-04-18 14:15 15.79390 -21.95205 30908 ft 476 kts 217°
2026-04-18 14:16 15.73575 -21.98514 30904 ft 477 kts 217°
2026-04-18 14:16 15.67820 -22.01787 30906 ft 478 kts 217°
2026-04-18 14:17 15.61985 -22.05103 30906 ft 478 kts 217°
2026-04-18 14:17 15.53233 -22.10073 30883 ft 477 kts 217°
2026-04-18 14:18 15.44474 -22.15043 30903 ft 479 kts 217°
2026-04-18 14:19 15.35720 -22.20006 30909 ft 480 kts 217°
2026-04-18 14:20 15.26913 -22.24991 30900 ft 481 kts 217°
2026-04-18 14:20 15.21041 -22.28313 30903 ft 481 kts 217°
2026-04-18 14:21 15.15174 -22.31630 30894 ft 480 kts 216°
2026-04-18 14:21 15.09308 -22.34945 30902 ft 480 kts 216°
2026-04-18 14:22 15.00507 -22.39915 30901 ft 481 kts 216°
2026-04-18 14:23 14.91740 -22.44860 30905 ft 481 kts 216°
2026-04-18 14:23 14.82917 -22.49833 30877 ft 481 kts 216°
2026-04-18 14:24 14.74075 -22.54812 30902 ft 482 kts 216°
2026-04-18 14:25 14.68172 -22.58133 30900 ft 484 kts 216°
2026-04-18 14:25 14.62298 -22.61435 30899 ft 484 kts 216°
2026-04-18 14:26 14.56365 -22.64768 30899 ft 484 kts 216°
2026-04-18 14:26 14.50446 -22.68092 30898 ft 484 kts 216°
2026-04-18 14:27 14.44530 -22.71412 30891 ft 484 kts 216°
2026-04-18 14:27 14.38606 -22.74734 30889 ft 484 kts 216°
2026-04-18 14:28 14.32707 -22.78041 30889 ft 485 kts 216°
2026-04-18 14:28 14.26746 -22.81380 30905 ft 485 kts 216°
2026-04-18 14:29 14.20860 -22.84676 30903 ft 485 kts 216°
2026-04-18 14:29 14.14933 -22.87992 30901 ft 485 kts 216°
2026-04-18 14:30 14.08999 -22.91310 30894 ft 485 kts 215°
2026-04-18 14:30 14.03067 -22.94625 30895 ft 485 kts 215°
2026-04-18 14:31 13.97147 -22.97932 30894 ft 485 kts 215°
2026-04-18 14:31 13.91281 -23.01206 30894 ft 486 kts 215°
2026-04-18 14:32 13.85338 -23.04522 30892 ft 486 kts 215°
2026-04-18 14:32 13.79389 -23.07839 30890 ft 486 kts 215°
2026-04-18 14:33 13.73443 -23.11152 30882 ft 486 kts 215°
2026-04-18 14:33 13.67535 -23.14442 30890 ft 486 kts 215°
2026-04-18 14:34 13.61590 -23.17752 30886 ft 486 kts 215°
2026-04-18 14:34 13.55643 -23.21061 30890 ft 486 kts 215°
2026-04-18 14:35 13.49691 -23.24370 30889 ft 486 kts 215°
2026-04-18 14:35 13.43743 -23.27674 30890 ft 486 kts 215°
2026-04-18 14:36 13.37794 -23.30976 30892 ft 486 kts 215°
2026-04-18 14:36 13.31882 -23.34257 30883 ft 486 kts 215°
2026-04-18 14:37 13.25932 -23.37559 30889 ft 486 kts 215°
2026-04-18 14:37 13.19973 -23.40863 30887 ft 486 kts 215°
2026-04-18 14:38 13.14022 -23.44161 30888 ft 486 kts 215°
2026-04-18 14:38 13.08112 -23.47435 30871 ft 486 kts 215°
2026-04-18 14:39 13.02158 -23.50731 30880 ft 486 kts 214°
2026-04-18 14:39 12.96206 -23.54025 30887 ft 487 kts 214°
2026-04-18 14:40 12.90239 -23.57325 30885 ft 487 kts 214°
2026-04-18 14:40 12.84267 -23.60625 30885 ft 488 kts 214°
2026-04-18 14:41 12.78292 -23.63925 30884 ft 488 kts 214°
2026-04-18 14:41 12.72353 -23.67204 30877 ft 488 kts 214°
2026-04-18 14:42 12.66363 -23.70509 30883 ft 488 kts 214°
2026-04-18 14:42 12.60390 -23.73804 30883 ft 488 kts 214°
2026-04-18 14:43 12.54413 -23.77098 30882 ft 488 kts 214°
2026-04-18 14:43 12.48437 -23.80390 30883 ft 488 kts 214°
2026-04-18 14:44 12.42456 -23.83683 30879 ft 488 kts 214°
2026-04-18 14:44 12.36472 -23.86977 30871 ft 488 kts 213°
2026-04-18 14:45 12.30526 -23.90248 30881 ft 488 kts 213°
2026-04-18 14:45 12.24542 -23.93537 30885 ft 489 kts 213°
2026-04-18 14:46 12.18547 -23.96831 30882 ft 489 kts 213°
2026-04-18 14:46 12.12624 -24.00084 30882 ft 489 kts 213°
2026-04-18 14:47 12.06641 -24.03368 30881 ft 489 kts 213°
2026-04-18 14:47 12.00641 -24.06660 30871 ft 489 kts 213°
2026-04-18 14:48 11.94673 -24.09933 30871 ft 490 kts 213°
2026-04-18 14:48 11.88666 -24.13225 30879 ft 490 kts 213°
2026-04-18 14:49 11.82654 -24.16518 30876 ft 490 kts 213°
2026-04-18 14:49 11.76633 -24.19815 30876 ft 491 kts 213°
2026-04-18 14:50 11.70618 -24.23106 30878 ft 491 kts 213°
2026-04-18 14:50 11.64600 -24.26398 30870 ft 491 kts 212°
2026-04-18 14:51 11.58572 -24.29693 30877 ft 491 kts 212°
2026-04-18 14:51 11.52538 -24.32990 30873 ft 492 kts 212°
2026-04-18 14:52 11.46501 -24.36288 30871 ft 492 kts 212°
2026-04-18 14:52 11.40466 -24.39582 30873 ft 492 kts 212°
2026-04-18 14:53 11.35447 -24.42320 30875 ft 492 kts 212°
2026-04-18 14:53 11.29404 -24.45616 30866 ft 492 kts 212°
2026-04-18 14:54 11.23365 -24.48908 30888 ft 492 kts 212°
2026-04-18 14:54 11.17315 -24.52205 30875 ft 493 kts 212°
2026-04-18 14:55 11.11265 -24.55500 30872 ft 493 kts 212°
2026-04-18 14:55 11.05257 -24.58770 30876 ft 493 kts 212°
2026-04-18 14:56 10.99210 -24.62061 30875 ft 493 kts 212°
2026-04-18 14:56 10.93163 -24.65350 30867 ft 493 kts 212°
2026-04-18 14:57 10.87110 -24.68639 30864 ft 493 kts 212°
2026-04-18 14:57 10.81054 -24.71930 30865 ft 493 kts 212°
2026-04-18 14:58 10.75037 -24.75198 30879 ft 493 kts 212°
2026-04-18 14:58 10.68980 -24.78486 30878 ft 493 kts 212°
2026-04-18 14:59 10.62929 -24.81770 30879 ft 493 kts 212°
2026-04-18 14:59 10.56874 -24.85054 30876 ft 493 kts 211°
2026-04-18 15:00 10.50821 -24.88335 30862 ft 493 kts 211°
2026-04-18 15:00 10.44752 -24.91624 30876 ft 493 kts 211°
2026-04-18 15:01 10.38685 -24.94910 30877 ft 494 kts 211°
2026-04-18 15:01 10.32618 -24.98195 30857 ft 494 kts 211°
2026-04-18 15:02 10.26682 -25.01407 30863 ft 494 kts 211°
2026-04-18 15:02 10.20618 -25.04688 30871 ft 494 kts 211°
2026-04-18 15:03 10.14548 -25.07970 30873 ft 495 kts 211°
2026-04-18 15:03 10.08472 -25.11254 30873 ft 495 kts 211°
2026-04-18 15:04 10.02392 -25.14539 30873 ft 495 kts 211°
2026-04-18 15:04 9.96323 -25.17817 30872 ft 495 kts 211°
2026-04-18 15:05 9.90240 -25.21101 30873 ft 495 kts 211°
2026-04-18 15:05 9.84162 -25.24380 30879 ft 494 kts 211°
2026-04-18 15:06 9.78121 -25.27638 30872 ft 495 kts 211°
2026-04-18 15:06 9.72046 -25.30915 30870 ft 495 kts 211°
2026-04-18 15:07 9.70029 -25.32003 30870 ft 495 kts 211°
2026-04-18 15:07 9.69219 -25.32440 30860 ft 495 kts 211°
2026-04-18 15:08 9.63605 -25.35467 30872 ft 495 kts 211°
2026-04-18 15:08 9.57527 -25.38742 30876 ft 494 kts 211°
2026-04-18 15:09 9.51443 -25.42020 30872 ft 495 kts 211°
2026-04-18 15:09 9.45368 -25.45291 30874 ft 496 kts 211°
2026-04-18 15:10 9.39295 -25.48560 30869 ft 496 kts 211°
2026-04-18 15:10 9.33192 -25.51844 30870 ft 497 kts 211°
2026-04-18 15:11 9.27089 -25.55126 30867 ft 497 kts 211°
2026-04-18 15:11 9.20988 -25.58406 30865 ft 497 kts 211°
2026-04-18 15:12 9.14877 -25.61690 30868 ft 497 kts 211°
2026-04-18 15:12 9.08766 -25.64972 30869 ft 497 kts 211°
2026-04-18 15:13 9.02646 -25.68259 30871 ft 498 kts 211°
2026-04-18 15:13 8.96532 -25.71541 30869 ft 498 kts 211°
2026-04-18 15:14 8.90411 -25.74825 30869 ft 498 kts 211°
2026-04-18 15:14 8.84281 -25.78113 30864 ft 498 kts 210°
2026-04-18 15:15 8.75127 -25.83020 30871 ft 498 kts 210°
2026-04-18 15:15 8.68999 -25.86304 30864 ft 498 kts 210°
2026-04-18 15:16 8.62868 -25.89589 30870 ft 498 kts 210°
2026-04-18 15:16 8.56734 -25.92873 30866 ft 498 kts 210°
2026-04-18 15:17 8.50602 -25.96156 30861 ft 498 kts 210°
2026-04-18 15:17 8.44516 -25.99413 30868 ft 498 kts 210°
2026-04-18 15:18 8.38464 -26.02651 30865 ft 498 kts 210°
2026-04-18 15:18 8.32338 -26.05927 30867 ft 498 kts 210°
2026-04-18 15:19 8.26204 -26.09200 30868 ft 498 kts 210°
2026-04-18 15:19 8.20071 -26.12471 30866 ft 498 kts 210°
2026-04-18 15:20 8.13981 -26.15719 30861 ft 498 kts 210°
2026-04-18 15:20 8.07854 -26.18987 30859 ft 498 kts 210°
2026-04-18 15:21 8.01726 -26.22254 30861 ft 498 kts 210°
2026-04-18 15:21 7.95602 -26.25518 30861 ft 498 kts 210°
2026-04-18 15:22 7.89476 -26.28782 30861 ft 498 kts 210°
2026-04-18 15:22 7.83341 -26.32049 30859 ft 498 kts 210°
2026-04-18 15:23 7.77202 -26.35318 30858 ft 498 kts 210°
2026-04-18 15:23 7.71068 -26.38583 30862 ft 498 kts 210°
2026-04-18 15:24 7.64933 -26.41847 30859 ft 499 kts 210°
2026-04-18 15:24 7.58824 -26.45096 30858 ft 499 kts 210°
2026-04-18 15:25 7.52689 -26.48358 30858 ft 499 kts 210°
2026-04-18 15:25 7.46550 -26.51621 30856 ft 499 kts 209°
2026-04-18 15:26 7.40405 -26.54887 30860 ft 499 kts 209°
2026-04-18 15:26 7.34266 -26.58148 30858 ft 499 kts 209°
2026-04-18 15:27 7.28129 -26.61407 30854 ft 499 kts 209°
2026-04-18 15:27 7.21985 -26.64669 30856 ft 499 kts 209°
2026-04-18 15:28 7.15844 -26.67928 30853 ft 499 kts 209°
2026-04-18 15:28 7.09739 -26.71157 30854 ft 498 kts 209°
2026-04-18 15:29 7.03616 -26.74433 30850 ft 498 kts 209°
2026-04-18 15:29 6.97495 -26.77665 30853 ft 498 kts 209°
2026-04-18 15:30 6.91362 -26.80909 30850 ft 498 kts 209°
2026-04-18 15:30 6.85228 -26.84160 30852 ft 498 kts 209°
2026-04-18 15:31 6.79096 -26.87410 30850 ft 498 kts 209°
2026-04-18 15:31 6.72973 -26.90667 30854 ft 497 kts 208°
2026-04-18 15:32 6.66831 -26.93897 30853 ft 497 kts 209°
2026-04-18 15:32 6.60711 -26.97141 30854 ft 497 kts 209°
2026-04-18 15:33 6.54676 -27.00339 30850 ft 497 kts 209°
2026-04-18 15:33 6.48549 -27.03581 30852 ft 497 kts 209°
2026-04-18 15:34 6.42424 -27.06820 30853 ft 497 kts 209°
2026-04-18 15:34 6.36333 -27.10038 30852 ft 497 kts 208°
2026-04-18 15:35 6.30208 -27.13273 30853 ft 497 kts 209°
2026-04-18 15:35 6.24085 -27.16506 30851 ft 497 kts 209°
2026-04-18 15:36 6.17957 -27.19742 30853 ft 497 kts 208°
2026-04-18 15:36 6.11830 -27.22977 30852 ft 497 kts 208°
2026-04-18 15:37 6.05717 -27.26215 30854 ft 496 kts 208°
2026-04-18 15:37 5.99632 -27.29472 30854 ft 495 kts 208°
2026-04-18 15:38 5.93507 -27.32663 30849 ft 496 kts 208°
2026-04-18 15:38 5.88410 -27.35332 30852 ft 497 kts 208°
2026-04-18 15:39 5.82281 -27.38561 30853 ft 497 kts 208°
2026-04-18 15:39 5.76146 -27.41798 30854 ft 497 kts 208°
2026-04-18 15:40 5.70069 -27.45003 30851 ft 497 kts 208°
2026-04-18 15:40 5.63937 -27.48238 30858 ft 496 kts 208°
2026-04-18 15:41 5.57874 -27.51493 30854 ft 493 kts 206°
2026-04-18 15:41 5.51725 -27.54614 30862 ft 496 kts 208°
2026-04-18 15:42 5.45605 -27.57849 30858 ft 498 kts 208°
2026-04-18 15:42 5.39509 -27.61087 30852 ft 498 kts 208°
2026-04-18 15:43 5.33395 -27.64344 30846 ft 497 kts 208°
2026-04-18 15:43 5.27269 -27.67566 30852 ft 497 kts 207°
2026-04-18 15:44 5.21143 -27.70770 30854 ft 496 kts 207°
2026-04-18 15:44 5.15022 -27.73981 30858 ft 496 kts 208°
2026-04-18 15:45 5.08891 -27.77204 30856 ft 496 kts 208°
2026-04-18 15:45 5.02805 -27.80385 30822 ft 496 kts 207°
2026-04-18 15:46 4.96717 -27.83616 30845 ft 496 kts 207°
2026-04-18 15:46 4.90592 -27.86841 30857 ft 497 kts 207°
2026-04-18 15:47 4.84458 -27.90052 30854 ft 497 kts 207°
2026-04-18 15:47 4.78323 -27.93269 30851 ft 497 kts 207°
2026-04-18 15:48 4.72189 -27.96489 30851 ft 497 kts 207°
2026-04-18 15:48 4.66062 -27.99707 30844 ft 497 kts 207°
2026-04-18 15:49 4.60011 -28.02884 30848 ft 498 kts 207°
2026-04-18 15:49 4.53872 -28.06107 30849 ft 498 kts 207°
2026-04-18 15:50 4.47725 -28.09332 30848 ft 497 kts 207°
2026-04-18 15:50 4.41636 -28.12585 30855 ft 496 kts 207°
2026-04-18 15:51 4.35550 -28.15764 30844 ft 498 kts 207°
2026-04-18 15:51 4.29415 -28.18998 30843 ft 499 kts 207°
2026-04-18 15:52 4.23235 -28.22193 30847 ft 499 kts 206°
2026-04-18 15:52 4.17132 -28.25482 30833 ft 494 kts 208°
2026-04-18 15:53 4.11092 -28.28751 30855 ft 498 kts 205°
2026-04-18 15:53 4.04868 -28.31853 30839 ft 501 kts 206°
2026-04-18 15:54 3.98718 -28.35022 30845 ft 502 kts 206°
2026-04-18 15:54 3.92534 -28.38261 30853 ft 502 kts 207°
2026-04-18 15:55 3.86332 -28.41504 30852 ft 502 kts 207°
2026-04-18 15:55 3.80177 -28.44792 30839 ft 500 kts 207°
2026-04-18 15:56 3.73974 -28.47984 30828 ft 500 kts 208°
2026-04-18 15:56 3.67964 -28.51371 30824 ft 496 kts 207°
2026-04-18 15:57 3.61751 -28.54511 30854 ft 506 kts 204°
2026-04-18 15:57 3.55416 -28.57676 30844 ft 507 kts 206°
2026-04-18 15:58 3.49216 -28.61010 30834 ft 504 kts 207°
2026-04-18 15:58 3.43132 -28.64309 30843 ft 500 kts 205°
2026-04-18 15:59 3.36880 -28.67434 30848 ft 505 kts 206°
2026-04-18 15:59 3.30649 -28.70772 30836 ft 508 kts 206°
2026-04-18 16:00 3.24368 -28.74054 30861 ft 511 kts 205°
2026-04-18 16:00 3.17999 -28.77295 30844 ft 514 kts 206°
2026-04-18 16:01 3.11682 -28.80618 30841 ft 511 kts 205°
2026-04-18 16:01 3.05381 -28.83913 30850 ft 509 kts 206°
2026-04-18 16:02 2.99115 -28.87115 30832 ft 509 kts 206°
2026-04-18 16:02 2.92940 -28.90503 30841 ft 506 kts 207°
2026-04-18 16:03 2.86641 -28.93728 30830 ft 510 kts 205°
2026-04-18 16:03 2.80347 -28.97008 30830 ft 510 kts 207°
2026-04-18 16:04 2.74215 -29.00349 30833 ft 507 kts 208°
2026-04-18 16:04 2.67949 -29.03636 30831 ft 510 kts 205°
2026-04-18 16:05 2.61586 -29.06857 30843 ft 514 kts 205°
2026-04-18 16:05 2.55225 -29.10162 30841 ft 515 kts 206°
2026-04-18 16:06 2.48899 -29.13502 30833 ft 513 kts 206°
2026-04-18 16:06 2.42601 -29.16823 30840 ft 510 kts 205°
2026-04-18 16:07 2.36356 -29.20102 30832 ft 509 kts 205°
2026-04-18 16:07 2.30097 -29.23382 30839 ft 508 kts 205°
2026-04-18 16:08 2.23828 -29.26678 30835 ft 508 kts 205°
2026-04-18 16:08 2.17553 -29.29921 30836 ft 509 kts 206°
2026-04-18 16:09 2.11269 -29.33225 30846 ft 512 kts 206°
2026-04-18 16:09 2.04956 -29.36550 30842 ft 514 kts 206°
2026-04-18 16:10 1.98624 -29.39876 30839 ft 514 kts 206°
2026-04-18 16:10 1.92297 -29.43192 30838 ft 514 kts 206°
2026-04-18 16:11 1.86003 -29.46489 30835 ft 513 kts 206°
2026-04-18 16:11 1.79684 -29.49798 30836 ft 512 kts 206°
2026-04-18 16:12 1.73375 -29.53103 30834 ft 512 kts 206°
2026-04-18 16:12 1.67063 -29.56409 30835 ft 512 kts 206°
2026-04-18 16:13 1.60813 -29.59794 30826 ft 508 kts 207°
2026-04-18 16:13 1.54529 -29.63028 30833 ft 510 kts 204°
2026-04-18 16:14 1.48160 -29.66261 30843 ft 516 kts 206°
2026-04-18 16:14 1.41804 -29.69640 30839 ft 518 kts 206°
2026-04-18 16:15 1.32213 -29.74633 30833 ft 517 kts 205°
2026-04-18 16:16 1.25873 -29.78000 30823 ft 514 kts 207°
2026-04-18 16:16 1.19586 -29.81259 30838 ft 513 kts 205°
2026-04-18 16:17 1.13192 -29.84473 30840 ft 516 kts 206°
2026-04-18 16:17 1.06794 -29.87758 30840 ft 518 kts 206°
2026-04-18 16:18 1.00390 -29.91081 30838 ft 519 kts 206°
2026-04-18 16:18 0.94001 -29.94415 30831 ft 517 kts 206°
2026-04-18 16:19 0.87614 -29.97711 30831 ft 516 kts 206°
2026-04-18 16:19 0.81334 -30.00953 30831 ft 514 kts 206°
2026-04-18 16:20 0.74983 -30.04240 30833 ft 514 kts 206°
2026-04-18 16:20 0.68630 -30.07530 30831 ft 513 kts 206°
2026-04-18 16:21 0.62289 -30.10812 30831 ft 513 kts 206°
2026-04-18 16:21 0.55942 -30.14097 30829 ft 513 kts 206°
2026-04-18 16:22 0.49627 -30.17365 30830 ft 514 kts 206°
2026-04-18 16:22 0.43273 -30.20654 30828 ft 514 kts 206°
2026-04-18 16:23 0.37988 -30.23389 30828 ft 514 kts 206°
2026-04-18 16:23 0.28447 -30.28328 30827 ft 515 kts 206°
2026-04-18 16:24 0.22081 -30.31622 30827 ft 515 kts 206°
2026-04-18 16:24 0.15711 -30.34913 30824 ft 515 kts 206°
2026-04-18 16:25 0.09394 -30.38174 30825 ft 515 kts 206°
2026-04-18 16:25 0.03038 -30.41474 30827 ft 514 kts 206°
2026-04-18 16:26 -0.03295 -30.44757 30822 ft 513 kts 206°
2026-04-18 16:26 -0.09649 -30.48022 30816 ft 513 kts 206°
2026-04-18 16:27 -0.15993 -30.51289 30831 ft 514 kts 206°
2026-04-18 16:27 -0.22353 -30.54575 30826 ft 515 kts 206°
2026-04-18 16:28 -0.28715 -30.57864 30826 ft 515 kts 206°
2026-04-18 16:28 -0.35088 -30.61158 30825 ft 515 kts 206°
2026-04-18 16:29 -0.41412 -30.64426 30822 ft 515 kts 206°
2026-04-18 16:29 -0.47772 -30.67712 30821 ft 514 kts 206°
2026-04-18 16:30 -0.54135 -30.71000 30823 ft 514 kts 206°
2026-04-18 16:30 -0.60490 -30.74284 30822 ft 514 kts 206°
2026-04-18 16:31 -0.66841 -30.77564 30822 ft 514 kts 206°
2026-04-18 16:31 -0.73181 -30.80872 30831 ft 514 kts 206°
2026-04-18 16:32 -0.79562 -30.84147 30827 ft 516 kts 206°
2026-04-18 16:32 -0.85950 -30.87442 30823 ft 517 kts 206°
2026-04-18 16:33 -0.92341 -30.90748 30819 ft 517 kts 206°
2026-04-18 16:33 -0.98686 -30.94024 30826 ft 516 kts 207°
2026-04-18 16:34 -1.05034 -30.97349 30824 ft 516 kts 206°
2026-04-18 16:34 -1.11231 -31.00691 30816 ft 510 kts 207°
2026-04-18 16:35 -1.17661 -31.03815 30826 ft 519 kts 204°
2026-04-18 16:35 -1.24130 -31.07022 30818 ft 518 kts 207°
2026-04-18 16:36 -1.30502 -31.10372 30811 ft 516 kts 207°
2026-04-18 16:36 -1.36844 -31.13734 30817 ft 515 kts 207°
2026-04-18 16:37 -1.43180 -31.17006 30815 ft 516 kts 206°
2026-04-18 16:37 -1.49576 -31.20290 30815 ft 517 kts 206°
2026-04-18 16:38 -1.55976 -31.23586 30816 ft 517 kts 206°
2026-04-18 16:38 -1.62372 -31.26888 30812 ft 517 kts 207°
2026-04-18 16:39 -1.68773 -31.30194 30815 ft 517 kts 207°
2026-04-18 16:39 -1.75166 -31.33496 30808 ft 517 kts 206°
2026-04-18 16:40 -1.81561 -31.36798 30809 ft 518 kts 206°
2026-04-18 16:40 -1.87971 -31.40108 30809 ft 518 kts 206°
2026-04-18 16:41 -1.97528 -31.45045 30810 ft 518 kts 206°
2026-04-18 16:42 -2.03898 -31.48376 30821 ft 516 kts 207°
2026-04-18 16:42 -2.10257 -31.51719 30807 ft 516 kts 206°
2026-04-18 16:43 -2.16647 -31.54973 30805 ft 515 kts 206°
2026-04-18 16:43 -2.23046 -31.58218 30812 ft 515 kts 206°
2026-04-18 16:44 -2.29431 -31.61515 30800 ft 517 kts 208°
2026-04-18 16:44 -2.35754 -31.64859 30811 ft 517 kts 206°
2026-04-18 16:45 -2.42186 -31.68111 30817 ft 518 kts 207°
2026-04-18 16:45 -2.48549 -31.71483 30815 ft 517 kts 207°
2026-04-18 16:46 -2.54934 -31.74795 30812 ft 514 kts 207°
2026-04-18 16:46 -2.61291 -31.78098 30806 ft 515 kts 207°
2026-04-18 16:47 -2.67704 -31.81342 30808 ft 518 kts 206°
2026-04-18 16:47 -2.74137 -31.84620 30799 ft 519 kts 207°
2026-04-18 16:48 -2.80475 -31.87965 30823 ft 517 kts 207°
2026-04-18 16:48 -2.86870 -31.91245 30814 ft 516 kts 206°
2026-04-18 16:49 -2.93251 -31.94528 30813 ft 515 kts 208°
2026-04-18 16:49 -2.99607 -31.97865 30816 ft 515 kts 207°
2026-04-18 16:50 -3.05903 -32.01078 30812 ft 515 kts 207°
2026-04-18 16:50 -3.12280 -32.04367 30810 ft 515 kts 207°
2026-04-18 16:51 -3.18643 -32.07667 30796 ft 515 kts 207°
2026-04-18 16:51 -3.25001 -32.10961 30809 ft 514 kts 207°
2026-04-18 16:52 -3.31337 -32.14272 30816 ft 516 kts 207°
2026-04-18 16:52 -3.37702 -32.17602 30815 ft 521 kts 207°
2026-04-18 16:53 -3.44094 -32.20951 30809 ft 515 kts 207°
2026-04-18 16:53 -3.50423 -32.24354 30806 ft 515 kts 209°
2026-04-18 16:54 -3.56709 -32.27789 30812 ft 517 kts 207°
2026-04-18 16:54 -3.63094 -32.31118 30810 ft 516 kts 207°
2026-04-18 16:55 -3.69490 -32.34408 30808 ft 517 kts 206°
2026-04-18 16:55 -3.75897 -32.37712 30802 ft 519 kts 208°
2026-04-18 16:56 -3.82197 -32.41165 30798 ft 519 kts 208°
2026-04-18 16:56 -3.88560 -32.44572 30804 ft 518 kts 209°
2026-04-18 16:57 -3.94808 -32.48123 30810 ft 515 kts 210°
2026-04-18 16:57 -4.00374 -32.51370 30816 ft 518 kts 211°
2026-04-18 16:58 -4.06584 -32.55040 30816 ft 516 kts 211°
2026-04-18 16:58 -4.12827 -32.58569 30818 ft 521 kts 208°
2026-04-18 16:59 -4.19116 -32.62151 30814 ft 517 kts 212°
2026-04-18 16:59 -4.25308 -32.65842 30810 ft 519 kts 209°
2026-04-18 17:00 -4.31531 -32.69490 30822 ft 519 kts 210°
2026-04-18 17:00 -4.37868 -32.73049 30817 ft 523 kts 209°
2026-04-18 17:01 -4.44181 -32.76629 30808 ft 519 kts 211°
2026-04-18 17:01 -4.50427 -32.80171 30816 ft 519 kts 210°
2026-04-18 17:02 -4.56708 -32.83788 30817 ft 521 kts 210°
2026-04-18 17:02 -4.62929 -32.87530 30790 ft 520 kts 212°
2026-04-18 17:03 -4.69161 -32.91169 30812 ft 519 kts 208°
2026-04-18 17:03 -4.75497 -32.94651 30815 ft 520 kts 210°
2026-04-18 17:04 -4.81772 -32.98266 30825 ft 522 kts 211°
2026-04-18 17:04 -4.87977 -33.01883 30823 ft 523 kts 211°
2026-04-18 17:05 -4.94279 -33.05545 30826 ft 522 kts 210°
2026-04-18 17:05 -5.00523 -33.09154 30823 ft 520 kts 210°
2026-04-18 17:06 -5.06790 -33.12768 30819 ft 520 kts 210°
2026-04-18 17:06 -5.13055 -33.16388 30825 ft 519 kts 211°
2026-04-18 17:07 -5.19293 -33.20061 30828 ft 520 kts 210°
2026-04-18 17:07 -5.25515 -33.23676 30825 ft 519 kts 210°
2026-04-18 17:08 -5.31840 -33.27245 30820 ft 522 kts 210°
2026-04-18 17:08 -5.38142 -33.30872 30826 ft 523 kts 211°
2026-04-18 17:09 -5.44427 -33.34529 30824 ft 522 kts 211°
2026-04-18 17:09 -5.50698 -33.38192 30821 ft 521 kts 211°
2026-04-18 17:10 -5.56956 -33.41851 30826 ft 520 kts 211°
2026-04-18 17:10 -5.63214 -33.45508 30822 ft 521 kts 211°
2026-04-18 17:11 -5.69485 -33.49172 30821 ft 521 kts 211°
2026-04-18 17:11 -5.75693 -33.52842 30808 ft 519 kts 211°
2026-04-18 17:12 -5.81870 -33.56548 30809 ft 517 kts 211°
2026-04-18 17:12 -5.88127 -33.60137 30824 ft 517 kts 210°
2026-04-18 17:13 -5.93368 -33.63144 30821 ft 519 kts 211°
2026-04-18 17:13 -5.99594 -33.66760 30821 ft 520 kts 211°
2026-04-18 17:14 -6.05835 -33.70406 30832 ft 517 kts 212°
2026-04-18 17:14 -6.12012 -33.74102 30821 ft 516 kts 211°
2026-04-18 17:15 -6.18234 -33.77710 30820 ft 516 kts 211°
2026-04-18 17:15 -6.24447 -33.81324 30822 ft 516 kts 211°
2026-04-18 17:16 -6.30647 -33.84953 30824 ft 516 kts 211°
2026-04-18 17:16 -6.36813 -33.88596 30818 ft 511 kts 213°
2026-04-18 17:17 -6.42859 -33.92218 30825 ft 508 kts 212°
2026-04-18 17:17 -6.48985 -33.95741 30805 ft 507 kts 212°
2026-04-18 17:18 -6.55088 -33.99282 30820 ft 506 kts 212°
2026-04-18 17:18 -6.61089 -34.02798 30821 ft 507 kts 212°
2026-04-18 17:19 -6.67176 -34.06375 30821 ft 508 kts 212°
2026-04-18 17:19 -6.73300 -34.09973 30818 ft 509 kts 212°
2026-04-18 17:20 -6.79386 -34.13547 30824 ft 509 kts 212°
2026-04-18 17:20 -6.85519 -34.17148 30824 ft 510 kts 212°
2026-04-18 17:21 -6.91644 -34.20747 30810 ft 510 kts 212°
2026-04-18 17:21 -6.97725 -34.24320 30822 ft 509 kts 212°
2026-04-18 17:22 -7.03838 -34.27914 30824 ft 509 kts 212°
2026-04-18 17:22 -7.09965 -34.31517 30805 ft 509 kts 212°
2026-04-18 17:23 -7.16084 -34.35116 30826 ft 509 kts 212°
2026-04-18 17:23 -7.22159 -34.38691 30825 ft 509 kts 212°
2026-04-18 17:24 -7.28273 -34.42290 30829 ft 509 kts 212°
2026-04-18 17:24 -7.34408 -34.45902 30827 ft 510 kts 212°
2026-04-18 17:25 -7.40539 -34.49513 30830 ft 510 kts 212°
2026-04-18 17:25 -7.46683 -34.53133 30810 ft 512 kts 212°
2026-04-18 17:26 -7.52785 -34.56729 30833 ft 511 kts 213°
2026-04-18 17:26 -7.58933 -34.60353 30812 ft 510 kts 213°
2026-04-18 17:27 -7.65051 -34.63961 30834 ft 509 kts 213°
2026-04-18 17:27 -7.74219 -34.69370 30834 ft 509 kts 213°
2026-04-18 17:28 -7.80334 -34.72980 30835 ft 509 kts 213°
2026-04-18 17:28 -7.86444 -34.76588 30835 ft 509 kts 213°
2026-04-18 17:29 -7.92509 -34.80170 30834 ft 509 kts 213°
2026-04-18 17:29 -7.98627 -34.83786 30833 ft 509 kts 213°
2026-04-18 17:30 -8.04750 -34.87406 30829 ft 509 kts 213°
2026-04-18 17:30 -8.10788 -34.91128 30813 ft 507 kts 219°
2026-04-18 17:31 -8.16025 -34.95826 30840 ft 502 kts 230°
2026-04-18 17:31 -8.20312 -35.01263 30831 ft 499 kts 237°
2026-04-18 17:32 -8.24360 -35.06881 30841 ft 500 kts 236°
2026-04-18 17:32 -8.28616 -35.12490 30848 ft 505 kts 235°
2026-04-18 17:33 -8.35067 -35.20957 30846 ft 508 kts 236°
2026-04-18 17:34 -8.39351 -35.26626 30855 ft 507 kts 236°
2026-04-18 17:34 -8.43619 -35.32287 30852 ft 505 kts 236°
2026-04-18 17:35 -8.47880 -35.37939 30857 ft 505 kts 236°
2026-04-18 17:35 -8.52105 -35.43543 30854 ft 504 kts 236°
2026-04-18 17:36 -8.56350 -35.49175 30865 ft 504 kts 236°
2026-04-18 17:36 -8.60492 -35.54847 30864 ft 498 kts 237°
2026-04-18 17:37 -8.64720 -35.60410 30869 ft 501 kts 235°
2026-04-18 17:37 -8.69017 -35.65987 30851 ft 504 kts 235°
2026-04-18 17:38 -8.73282 -35.71636 30871 ft 506 kts 236°
2026-04-18 17:38 -8.77539 -35.77313 30865 ft 507 kts 235°
2026-04-18 17:39 -8.81804 -35.82996 30865 ft 506 kts 235°
2026-04-18 17:39 -8.86060 -35.88661 30859 ft 506 kts 235°
2026-04-18 17:40 -8.90315 -35.94325 30880 ft 505 kts 235°
2026-04-18 17:40 -8.94533 -35.99943 30867 ft 505 kts 235°
2026-04-18 17:41 -8.98726 -36.05532 30881 ft 504 kts 234°
2026-04-18 17:41 -9.03075 -36.11107 30859 ft 506 kts 229°
2026-04-18 17:42 -9.08262 -36.15937 30881 ft 508 kts 218°
2026-04-18 17:42 -9.14062 -36.20035 30882 ft 509 kts 216°
2026-04-18 17:43 -9.19906 -36.24082 30874 ft 509 kts 216°
2026-04-18 17:43 -9.25705 -36.28172 30858 ft 506 kts 216°
2026-04-18 17:44 -9.31443 -36.32206 30874 ft 504 kts 215°
2026-04-18 17:44 -9.37192 -36.36268 30879 ft 503 kts 216°
2026-04-18 17:45 -9.42917 -36.40334 30876 ft 503 kts 216°
2026-04-18 17:45 -9.48660 -36.44410 30857 ft 503 kts 216°
2026-04-18 17:46 -9.54401 -36.48480 30867 ft 503 kts 216°
2026-04-18 17:46 -9.60110 -36.52579 30869 ft 503 kts 216°
2026-04-18 17:47 -9.65811 -36.56604 30848 ft 503 kts 216°
2026-04-18 17:47 -9.71565 -36.60655 30865 ft 504 kts 216°
2026-04-18 17:48 -9.77224 -36.64806 30866 ft 501 kts 216°
2026-04-18 17:48 -9.82950 -36.68838 30863 ft 500 kts 214°
2026-04-18 17:49 -9.88653 -36.72878 30863 ft 500 kts 216°
2026-04-18 17:49 -9.94333 -36.76944 30857 ft 498 kts 215°
2026-04-18 17:50 -9.99971 -36.80992 30838 ft 494 kts 215°
2026-04-18 17:50 -10.05598 -36.84972 30836 ft 493 kts 215°
2026-04-18 17:51 -10.11213 -36.89007 30852 ft 495 kts 215°
2026-04-18 17:51 -10.16818 -36.93076 30830 ft 494 kts 215°
2026-04-18 17:52 -10.22457 -36.97076 30831 ft 494 kts 215°
2026-04-18 17:52 -10.28000 -37.01051 30854 ft 496 kts 215°
2026-04-18 17:53 -10.33647 -37.05083 30853 ft 496 kts 215°
2026-04-18 17:53 -10.39273 -37.09117 30836 ft 494 kts 215°
2026-04-18 17:54 -10.44871 -37.13141 30837 ft 492 kts 215°
2026-04-18 17:54 -10.50421 -37.17130 30853 ft 491 kts 215°
2026-04-18 17:55 -10.55953 -37.21174 30828 ft 487 kts 217°
2026-04-18 17:55 -10.61462 -37.25200 30838 ft 488 kts 214°
2026-04-18 17:56 -10.67073 -37.29134 30839 ft 491 kts 214°
2026-04-18 17:56 -10.75492 -37.35138 30834 ft 493 kts 215°
2026-04-18 17:57 -10.83880 -37.41184 30837 ft 492 kts 215°
2026-04-18 17:58 -10.95012 -37.49207 30849 ft 491 kts 215°
2026-04-18 17:59 -11.02462 -37.54578 30850 ft 491 kts 215°
2026-04-18 18:00 -11.10830 -37.60591 30834 ft 490 kts 215°
2026-04-18 18:01 -11.21904 -37.68604 30856 ft 490 kts 216°
2026-04-18 18:02 -11.33067 -37.76679 30856 ft 492 kts 216°
2026-04-18 18:02 -11.41440 -37.82760 30834 ft 493 kts 216°
2026-04-18 18:03 -11.49844 -37.88817 30847 ft 493 kts 216°
2026-04-18 18:04 -11.58189 -37.94896 30851 ft 493 kts 216°
2026-04-18 18:05 -11.69242 -38.02979 30851 ft 491 kts 216°
2026-04-18 18:05 -11.74825 -38.07021 30852 ft 492 kts 216°
2026-04-18 18:06 -11.83152 -38.13093 30853 ft 492 kts 216°
2026-04-18 18:07 -11.88723 -38.17163 30861 ft 492 kts 216°
2026-04-18 18:07 -11.97077 -38.23267 30857 ft 492 kts 216°
2026-04-18 18:08 -12.02635 -38.27329 30852 ft 491 kts 216°
2026-04-18 18:08 -12.08193 -38.31394 30856 ft 491 kts 216°
2026-04-18 18:09 -12.13743 -38.35455 30855 ft 491 kts 216°
2026-04-18 18:09 -12.19300 -38.39523 30855 ft 491 kts 216°
2026-04-18 18:10 -12.24815 -38.43563 30853 ft 491 kts 216°
2026-04-18 18:10 -12.30373 -38.47636 30856 ft 491 kts 216°
2026-04-18 18:11 -12.35935 -38.51714 30860 ft 491 kts 217°
2026-04-18 18:11 -12.41490 -38.55790 30857 ft 491 kts 216°
2026-04-18 18:12 -12.47047 -38.59869 30850 ft 491 kts 217°
2026-04-18 18:12 -12.52605 -38.63950 30852 ft 491 kts 217°
2026-04-18 18:13 -12.58155 -38.68030 30850 ft 491 kts 217°
2026-04-18 18:13 -12.63712 -38.72106 30858 ft 491 kts 217°
2026-04-18 18:14 -12.69229 -38.76210 30851 ft 490 kts 217°
2026-04-18 18:14 -12.74798 -38.80276 30856 ft 491 kts 217°
2026-04-18 18:15 -12.80328 -38.84343 30858 ft 492 kts 217°
2026-04-18 18:15 -12.85886 -38.88446 30852 ft 493 kts 217°
2026-04-18 18:16 -12.91453 -38.92562 30855 ft 492 kts 217°
2026-04-18 18:16 -12.97001 -38.96680 30854 ft 492 kts 217°
2026-04-18 18:17 -13.02438 -39.00719 30853 ft 492 kts 217°
2026-04-18 18:17 -13.07980 -39.04836 30852 ft 491 kts 217°
2026-04-18 18:18 -13.13519 -39.08953 30860 ft 491 kts 218°
2026-04-18 18:18 -13.19050 -39.13066 30852 ft 490 kts 218°
2026-04-18 18:19 -13.24576 -39.17178 30856 ft 490 kts 218°
2026-04-18 18:19 -13.30102 -39.21293 30860 ft 490 kts 218°
2026-04-18 18:20 -13.35626 -39.25409 30862 ft 490 kts 218°
2026-04-18 18:20 -13.41103 -39.29492 30865 ft 490 kts 218°
2026-04-18 18:21 -13.46624 -39.33610 30861 ft 490 kts 218°
2026-04-18 18:21 -13.52134 -39.37730 30860 ft 489 kts 218°
2026-04-18 18:22 -13.57636 -39.41850 30868 ft 489 kts 218°
2026-04-18 18:22 -13.63132 -39.45969 30874 ft 489 kts 218°
2026-04-18 18:23 -13.68629 -39.50089 30868 ft 488 kts 218°
2026-04-18 18:23 -13.74091 -39.54186 30872 ft 488 kts 218°
2026-04-18 18:24 -13.79581 -39.58307 30865 ft 488 kts 218°
2026-04-18 18:24 -13.85070 -39.62429 30866 ft 488 kts 218°
2026-04-18 18:25 -13.90551 -39.66548 30862 ft 487 kts 218°
2026-04-18 18:25 -13.96022 -39.70661 30867 ft 487 kts 219°
2026-04-18 18:26 -14.01490 -39.74775 30863 ft 487 kts 219°
2026-04-18 18:26 -14.06966 -39.78897 30860 ft 487 kts 219°
2026-04-18 18:27 -14.12435 -39.83017 30861 ft 487 kts 219°
2026-04-18 18:27 -14.17897 -39.87134 30861 ft 486 kts 219°
2026-04-18 18:28 -14.23356 -39.91251 30862 ft 485 kts 219°
2026-04-18 18:28 -14.28799 -39.95358 30871 ft 485 kts 219°
2026-04-18 18:29 -14.34248 -39.99473 30876 ft 485 kts 219°
2026-04-18 18:29 -14.39624 -40.03536 30877 ft 484 kts 219°
2026-04-18 18:30 -14.45026 -40.07618 30867 ft 484 kts 219°
2026-04-18 18:30 -14.50449 -40.11723 30873 ft 483 kts 219°
2026-04-18 18:31 -14.55874 -40.15831 30876 ft 483 kts 219°
2026-04-18 18:31 -14.61294 -40.19935 30883 ft 483 kts 219°
2026-04-18 18:32 -14.66712 -40.24040 30894 ft 484 kts 219°
2026-04-18 18:32 -14.72152 -40.28166 30886 ft 484 kts 219°
2026-04-18 18:33 -14.77579 -40.32285 30885 ft 484 kts 219°
2026-04-18 18:33 -14.82967 -40.36378 30887 ft 483 kts 219°
2026-04-18 18:34 -14.88386 -40.40496 30891 ft 483 kts 219°
2026-04-18 18:34 -14.93803 -40.44616 30872 ft 482 kts 219°
2026-04-18 18:35 -14.99200 -40.48722 30877 ft 481 kts 219°
2026-04-18 18:35 -15.04587 -40.52824 30878 ft 481 kts 220°
2026-04-18 18:36 -15.09939 -40.56903 30872 ft 481 kts 220°
2026-04-18 18:36 -15.15329 -40.61013 30862 ft 481 kts 220°
2026-04-18 18:37 -15.20714 -40.65122 30860 ft 481 kts 220°
2026-04-18 18:37 -15.26113 -40.69243 30857 ft 481 kts 220°
2026-04-18 18:38 -15.31495 -40.73354 30860 ft 480 kts 220°
2026-04-18 18:38 -15.36863 -40.77458 30861 ft 480 kts 220°
2026-04-18 18:39 -15.42194 -40.81537 30857 ft 479 kts 220°
2026-04-18 18:39 -15.47565 -40.85649 30863 ft 480 kts 220°
2026-04-18 18:40 -15.52944 -40.89768 30868 ft 480 kts 220°
2026-04-18 18:40 -15.58320 -40.93889 30862 ft 480 kts 220°
2026-04-18 18:41 -15.63692 -40.98010 30864 ft 480 kts 220°
2026-04-18 18:41 -15.68993 -41.02078 30858 ft 480 kts 220°
2026-04-18 18:42 -15.74363 -41.06201 30879 ft 480 kts 221°
2026-04-18 18:42 -15.79717 -41.10317 30859 ft 480 kts 221°
2026-04-18 18:43 -15.87738 -41.16487 30862 ft 479 kts 221°
2026-04-18 18:44 -15.93099 -41.20616 30857 ft 480 kts 221°
2026-04-18 18:44 -15.98456 -41.24742 30870 ft 479 kts 221°
2026-04-18 18:45 -16.03808 -41.28869 30858 ft 479 kts 221°
2026-04-18 18:45 -16.09155 -41.32996 30855 ft 479 kts 221°
2026-04-18 18:46 -16.14505 -41.37130 30862 ft 478 kts 221°
2026-04-18 18:46 -16.18952 -41.40568 30874 ft 478 kts 221°
2026-04-18 18:47 -16.24290 -41.44697 30862 ft 478 kts 221°
2026-04-18 18:47 -16.29623 -41.48825 30849 ft 477 kts 221°
2026-04-18 18:48 -16.34951 -41.52953 30853 ft 477 kts 221°
2026-04-18 18:48 -16.40277 -41.57083 30861 ft 477 kts 221°
2026-04-18 18:49 -16.45568 -41.61186 30847 ft 477 kts 221°
2026-04-18 18:49 -16.50893 -41.65320 30844 ft 477 kts 221°
2026-04-18 18:50 -16.56214 -41.69453 30847 ft 477 kts 221°
2026-04-18 18:50 -16.61542 -41.73596 30843 ft 477 kts 221°
2026-04-18 18:51 -16.66870 -41.77741 30839 ft 478 kts 221°
2026-04-18 18:51 -16.72195 -41.81887 30843 ft 478 kts 221°
2026-04-18 18:52 -16.77522 -41.86037 30850 ft 477 kts 221°
2026-04-18 18:52 -16.82842 -41.90186 30832 ft 477 kts 221°
2026-04-18 18:53 -16.88156 -41.94331 30847 ft 477 kts 221°
2026-04-18 18:53 -16.93436 -41.98451 30851 ft 477 kts 221°
2026-04-18 18:54 -16.98695 -42.02555 30853 ft 476 kts 221°
2026-04-18 18:54 -17.03995 -42.06695 30850 ft 476 kts 221°
2026-04-18 18:55 -17.09297 -42.10842 30862 ft 475 kts 222°
2026-04-18 18:55 -17.14599 -42.14992 30856 ft 475 kts 222°
2026-04-18 18:56 -17.19887 -42.19135 30858 ft 475 kts 222°
2026-04-18 18:56 -17.25173 -42.23276 30867 ft 474 kts 222°
2026-04-18 18:57 -17.30420 -42.27391 30869 ft 475 kts 222°
2026-04-18 18:57 -17.35706 -42.31542 30869 ft 475 kts 222°
2026-04-18 18:58 -17.41001 -42.35702 30874 ft 476 kts 222°
2026-04-18 18:58 -17.46300 -42.39868 30871 ft 476 kts 222°
2026-04-18 18:59 -17.51591 -42.44029 30882 ft 475 kts 222°
2026-04-18 18:59 -17.56872 -42.48186 30878 ft 474 kts 222°
2026-04-18 19:00 -17.62146 -42.52341 30875 ft 473 kts 222°
2026-04-18 19:00 -17.67404 -42.56488 30878 ft 473 kts 222°
2026-04-18 19:01 -17.72658 -42.60633 30888 ft 472 kts 223°
2026-04-18 19:01 -17.77895 -42.64769 30873 ft 471 kts 223°
2026-04-18 19:02 -17.83081 -42.68866 30872 ft 469 kts 223°
2026-04-18 19:02 -17.88288 -42.72983 30876 ft 468 kts 223°
2026-04-18 19:03 -17.93491 -42.77101 30891 ft 469 kts 223°
2026-04-18 19:03 -17.98702 -42.81231 30879 ft 469 kts 223°
2026-04-18 19:04 -18.06504 -42.87416 30875 ft 468 kts 223°
2026-04-18 19:04 -18.11704 -42.91541 30906 ft 468 kts 223°
2026-04-18 19:05 -18.19473 -42.97712 30873 ft 468 kts 223°
2026-04-18 19:06 -18.24601 -43.01792 30872 ft 468 kts 223°
2026-04-18 19:06 -18.32389 -43.07989 30875 ft 467 kts 223°
2026-04-18 19:07 -18.37571 -43.12118 30876 ft 467 kts 223°
2026-04-18 19:07 -18.42736 -43.16266 30870 ft 467 kts 223°
2026-04-18 19:08 -18.47880 -43.20445 30883 ft 467 kts 223°
2026-04-18 19:08 -18.53008 -43.24608 30894 ft 467 kts 223°
2026-04-18 19:09 -18.58157 -43.28784 30881 ft 467 kts 223°
2026-04-18 19:09 -18.63303 -43.32962 30874 ft 466 kts 223°
2026-04-18 19:10 -18.68480 -43.37094 30876 ft 466 kts 222°
2026-04-18 19:10 -18.73663 -43.41200 30902 ft 466 kts 222°
2026-04-18 19:11 -18.78848 -43.45322 30875 ft 467 kts 221°
2026-04-18 19:11 -18.84036 -43.49457 30871 ft 466 kts 222°
2026-04-18 19:12 -18.89220 -43.53582 30881 ft 467 kts 221°
2026-04-18 19:12 -18.94449 -43.57611 30900 ft 468 kts 220°
2026-04-18 19:13 -18.99726 -43.61635 30871 ft 468 kts 221°
2026-04-18 19:13 -19.04997 -43.65672 30893 ft 469 kts 221°
2026-04-18 19:14 -19.10278 -43.69735 30889 ft 469 kts 221°
2026-04-18 19:14 -19.15549 -43.73794 30883 ft 469 kts 220°
2026-04-18 19:15 -19.20815 -43.77851 30885 ft 468 kts 220°
2026-04-18 19:15 -19.26070 -43.81904 30883 ft 467 kts 220°
2026-04-18 19:16 -19.31321 -43.85958 30880 ft 467 kts 220°
2026-04-18 19:16 -19.36539 -43.89988 30902 ft 466 kts 220°
2026-04-18 19:17 -19.41776 -43.94038 30914 ft 466 kts 220°
2026-04-18 19:17 -19.47008 -43.98087 30919 ft 466 kts 220°
2026-04-18 19:18 -19.52175 -44.02089 30933 ft 466 kts 220°
2026-04-18 19:18 -19.57412 -44.06138 30944 ft 465 kts 219°
2026-04-18 19:19 -19.62664 -44.10134 30884 ft 464 kts 219°
2026-04-18 19:19 -19.67904 -44.14121 30880 ft 463 kts 219°
2026-04-18 19:20 -19.73130 -44.18124 30889 ft 463 kts 219°
2026-04-18 19:20 -19.78296 -44.22122 30878 ft 462 kts 219°
2026-04-18 19:21 -19.83488 -44.26147 30875 ft 462 kts 219°
2026-04-18 19:21 -19.88677 -44.30169 30875 ft 462 kts 219°
2026-04-18 19:22 -19.93868 -44.34193 30897 ft 462 kts 219°
2026-04-18 19:22 -19.99055 -44.38217 30886 ft 461 kts 219°
2026-04-18 19:23 -20.04207 -44.42218 30868 ft 460 kts 219°
2026-04-18 19:23 -20.09391 -44.46246 30871 ft 460 kts 219°
2026-04-18 19:24 -20.14560 -44.50267 30887 ft 459 kts 219°
2026-04-18 19:24 -20.19716 -44.54273 30881 ft 458 kts 219°
2026-04-18 19:25 -20.24859 -44.58271 30884 ft 457 kts 219°
2026-04-18 19:25 -20.29962 -44.62244 30872 ft 458 kts 218°
2026-04-18 19:26 -20.35098 -44.66247 30883 ft 457 kts 218°
2026-04-18 19:26 -20.40223 -44.70245 30878 ft 456 kts 218°
2026-04-18 19:27 -20.45349 -44.74247 30882 ft 456 kts 218°
2026-04-18 19:27 -20.50469 -44.78247 30895 ft 456 kts 218°